Time,TemperatureF,DewpointF,PressureIn,WindDirection,WindDirectionDegrees,WindSpeedMPH,WindSpeedGustMPH,Humidity,HourlyPrecipIn,Conditions,Clouds,dailyrainin,SoftwareType,DateUTC
2013-03-01 00:02:00,32.0,26.0,30.05,West,270,4.7,4.7,78,0.00,,,0.00,WUHU216HW,2013-03-01 07:02:00,
2013-03-01 00:03:00,31.9,25.8,30.05,West,270,4.7,4.7,78,0.00,,,0.00,WUHU216HW,2013-03-01 07:03:00,
2013-03-01 00:07:00,31.9,25.2,30.05,West,270,4.0,7.2,76,0.00,,,0.00,WUHU216HW,2013-03-01 07:07:00,
2013-03-01 00:08:00,31.9,25.2,30.05,West,270,3.1,7.2,76,0.00,,,0.00,WUHU216HW,2013-03-01 07:08:00,
2013-03-01 00:13:00,31.9,25.2,30.04,WSW,248,6.0,7.2,76,0.00,,,0.00,WUHU216HW,2013-03-01 07:13:00,
2013-03-01 00:18:00,31.9,25.5,30.04,WSW,248,4.3,7.2,77,0.00,,,0.00,WUHU216HW,2013-03-01 07:18:00,
2013-03-01 00:23:00,32.0,26.3,30.04,SW,225,3.4,7.6,79,0.00,,,0.00,WUHU216HW,2013-03-01 07:23:00,
2013-03-01 00:28:00,32.0,26.3,30.04,West,270,2.5,7.6,79,0.00,,,0.00,WUHU216HW,2013-03-01 07:28:00,
2013-03-01 00:33:00,32.0,26.6,30.04,West,270,1.3,5.6,80,0.00,,,0.00,WUHU216HW,2013-03-01 07:33:00,
2013-03-01 00:34:00,32.0,26.6,30.04,West,270,0.4,5.6,80,0.00,,,0.00,WUHU216HW,2013-03-01 07:34:00,
2013-03-01 00:38:00,32.4,26.6,30.04,ENE,68,1.3,5.6,79,0.00,,,0.00,WUHU216HW,2013-03-01 07:38:00,
2013-03-01 00:39:00,32.4,26.6,30.04,ENE,68,0.0,5.6,79,0.00,,,0.00,WUHU216HW,2013-03-01 07:39:00,
2013-03-01 00:43:00,32.4,26.3,30.04,NNW,338,1.8,2.5,78,0.00,,,0.00,WUHU216HW,2013-03-01 07:43:00,
2013-03-01 00:44:00,32.4,27.0,30.04,NNW,338,2.2,2.7,80,0.00,,,0.00,WUHU216HW,2013-03-01 07:44:00,
2013-03-01 00:48:00,32.4,26.6,30.04,East,90,2.5,4.3,79,0.00,,,0.00,WUHU216HW,2013-03-01 07:48:00,
2013-03-01 00:49:00,32.4,26.6,30.04,East,90,2.5,4.3,79,0.00,,,0.00,WUHU216HW,2013-03-01 07:49:00,
2013-03-01 00:53:00,32.2,26.5,30.04,NNW,338,0.0,4.3,79,0.00,,,0.00,WUHU216HW,2013-03-01 07:53:00,
2013-03-01 00:54:00,32.2,26.5,30.04,NNW,338,0.0,4.3,79,0.00,,,0.00,WUHU216HW,2013-03-01 07:54:00,
2013-03-01 00:59:00,32.0,26.9,30.05,North,0,1.3,2.5,81,0.00,,,0.00,WUHU216HW,2013-03-01 07:59:00,
2013-03-01 01:03:00,32.0,26.3,30.05,NNW,338,2.5,3.6,79,0.00,,,0.00,WUHU216HW,2013-03-01 08:03:00,
2013-03-01 01:04:00,32.0,26.9,30.05,NNW,338,2.2,3.6,81,0.00,,,0.00,WUHU216HW,2013-03-01 08:04:00,
2013-03-01 01:09:00,31.9,26.7,30.05,NNW,338,1.1,3.6,81,0.00,,,0.00,WUHU216HW,2013-03-01 08:09:00,
2013-03-01 01:14:00,31.9,27.0,30.05,NW,315,4.5,5.4,82,0.00,,,0.00,WUHU216HW,2013-03-01 08:14:00,
2013-03-01 01:15:00,31.9,27.0,30.05,NW,315,4.0,5.4,82,0.00,,,0.00,WUHU216HW,2013-03-01 08:15:00,
2013-03-01 01:19:00,31.9,27.0,30.05,WNW,293,4.5,5.4,82,0.00,,,0.00,WUHU216HW,2013-03-01 08:19:00,
2013-03-01 01:20:00,31.9,27.0,30.05,NW,315,4.3,5.4,82,0.00,,,0.00,WUHU216HW,2013-03-01 08:20:00,
2013-03-01 01:24:00,31.9,27.4,30.06,NW,315,4.7,5.1,83,0.00,,,0.00,WUHU216HW,2013-03-01 08:24:00,
2013-03-01 01:25:00,32.0,27.6,30.06,NW,315,4.7,5.1,83,0.00,,,0.00,WUHU216HW,2013-03-01 08:25:00,
2013-03-01 01:29:00,32.0,27.6,30.06,NW,315,2.7,5.1,83,0.00,,,0.00,WUHU216HW,2013-03-01 08:29:00,
2013-03-01 01:30:00,32.0,27.6,30.06,NW,315,3.4,5.1,83,0.00,,,0.00,WUHU216HW,2013-03-01 08:30:00,
2013-03-01 01:34:00,32.0,27.2,30.06,NNW,338,1.6,4.7,82,0.00,,,0.00,WUHU216HW,2013-03-01 08:34:00,
2013-03-01 01:35:00,32.2,27.4,30.06,NNW,338,1.1,4.7,82,0.00,,,0.00,WUHU216HW,2013-03-01 08:35:00,
2013-03-01 01:36:00,32.2,27.4,30.06,NNW,338,1.1,4.7,82,0.00,,,0.00,WUHU216HW,2013-03-01 08:36:00,
2013-03-01 01:39:00,32.4,27.5,30.06,West,270,3.6,4.0,82,0.00,,,0.00,WUHU216HW,2013-03-01 08:39:00,
2013-03-01 01:40:00,32.4,27.3,30.05,West,270,3.6,4.0,81,0.00,,,0.00,WUHU216HW,2013-03-01 08:40:00,
2013-03-01 01:41:00,32.2,27.1,30.05,West,270,1.8,4.0,81,0.00,,,0.00,WUHU216HW,2013-03-01 08:41:00,
2013-03-01 01:44:00,32.4,27.3,30.06,West,270,3.1,4.0,81,0.00,,,0.00,WUHU216HW,2013-03-01 08:44:00,
2013-03-01 01:45:00,32.4,27.5,30.06,West,270,2.7,4.0,82,0.00,,,0.00,WUHU216HW,2013-03-01 08:45:00,
2013-03-01 01:46:00,32.4,27.5,30.06,West,270,3.8,4.0,82,0.00,,,0.00,WUHU216HW,2013-03-01 08:46:00,
2013-03-01 01:50:00,32.4,27.5,30.05,SSW,203,1.3,4.0,82,0.00,,,0.00,WUHU216HW,2013-03-01 08:50:00,
2013-03-01 01:51:00,32.4,27.3,30.05,SW,225,0.7,4.0,81,0.00,,,0.00,WUHU216HW,2013-03-01 08:51:00,
2013-03-01 01:55:00,32.4,27.3,30.05,SW,225,0.0,4.0,81,0.00,,,0.00,WUHU216HW,2013-03-01 08:55:00,
2013-03-01 01:56:00,32.4,27.3,30.05,SW,225,0.7,4.0,81,0.00,,,0.00,WUHU216HW,2013-03-01 08:56:00,
2013-03-01 02:00:00,32.6,27.1,30.05,SW,225,1.1,1.3,80,0.00,,,0.00,WUHU216HW,2013-03-01 09:00:00,
2013-03-01 02:01:00,32.6,27.1,30.05,SW,225,1.6,1.6,80,0.00,,,0.00,WUHU216HW,2013-03-01 09:01:00,
2013-03-01 02:05:00,32.8,27.3,30.05,SSW,203,0.0,2.0,80,0.00,,,0.00,WUHU216HW,2013-03-01 09:05:00,
2013-03-01 02:06:00,32.8,27.3,30.05,West,270,1.6,2.0,80,0.00,,,0.00,WUHU216HW,2013-03-01 09:06:00,
2013-03-01 02:10:00,32.8,27.3,30.05,West,270,0.0,2.0,80,0.00,,,0.00,WUHU216HW,2013-03-01 09:10:00,
2013-03-01 02:11:00,32.8,27.3,30.05,West,270,0.0,2.0,80,0.00,,,0.00,WUHU216HW,2013-03-01 09:11:00,
2013-03-01 02:15:00,32.8,27.3,30.06,NW,315,4.0,4.0,80,0.00,,,0.00,WUHU216HW,2013-03-01 09:15:00,
2013-03-01 02:16:00,32.6,27.1,30.06,NNW,338,3.1,4.0,80,0.00,,,0.00,WUHU216HW,2013-03-01 09:16:00,
2013-03-01 02:20:00,32.8,27.5,30.06,ENE,68,0.7,4.0,81,0.00,,,0.00,WUHU216HW,2013-03-01 09:20:00,
2013-03-01 02:21:00,32.8,27.3,30.06,ENE,68,0.9,4.0,80,0.00,,,0.00,WUHU216HW,2013-03-01 09:21:00,
2013-03-01 02:25:00,32.8,27.3,30.06,WNW,293,0.4,3.1,80,0.00,,,0.00,WUHU216HW,2013-03-01 09:25:00,
2013-03-01 02:26:00,32.8,27.3,30.06,WSW,248,2.2,3.1,80,0.00,,,0.00,WUHU216HW,2013-03-01 09:26:00,
2013-03-01 02:31:00,32.8,27.3,30.06,SSW,203,0.0,2.9,80,0.00,,,0.00,WUHU216HW,2013-03-01 09:31:00,
2013-03-01 02:36:00,32.8,27.3,30.06,SSE,158,2.7,2.9,80,0.00,,,0.00,WUHU216HW,2013-03-01 09:36:00,
2013-03-01 02:37:00,32.8,27.0,30.06,SSE,158,2.9,3.1,79,0.00,,,0.00,WUHU216HW,2013-03-01 09:37:00,
2013-03-01 02:38:00,32.8,27.0,30.06,SSE,158,2.9,3.1,79,0.00,,,0.00,WUHU216HW,2013-03-01 09:38:00,
2013-03-01 02:41:00,32.8,27.0,30.06,SE,135,4.0,4.0,79,0.00,,,0.00,WUHU216HW,2013-03-01 09:41:00,
2013-03-01 02:42:00,32.9,27.1,30.06,SE,135,4.3,4.5,79,0.00,,,0.00,WUHU216HW,2013-03-01 09:42:00,
2013-03-01 02:43:00,32.8,27.0,30.06,SE,135,4.0,4.5,79,0.00,,,0.00,WUHU216HW,2013-03-01 09:43:00,
2013-03-01 02:46:00,32.9,27.1,30.06,SSE,158,0.9,4.7,79,0.00,,,0.00,WUHU216HW,2013-03-01 09:46:00,
2013-03-01 02:47:00,32.8,27.0,30.07,WSW,248,3.8,4.7,79,0.00,,,0.00,WUHU216HW,2013-03-01 09:47:00,
2013-03-01 02:48:00,32.8,27.0,30.07,WSW,248,1.3,4.7,79,0.00,,,0.00,WUHU216HW,2013-03-01 09:48:00,
2013-03-01 02:51:00,32.8,27.0,30.06,SE,135,3.8,4.7,79,0.00,,,0.00,WUHU216HW,2013-03-01 09:51:00,
2013-03-01 02:52:00,32.8,27.0,30.07,SSE,158,2.0,4.7,79,0.00,,,0.00,WUHU216HW,2013-03-01 09:52:00,
2013-03-01 02:53:00,32.8,26.6,30.07,South,180,3.4,4.7,78,0.00,,,0.00,WUHU216HW,2013-03-01 09:53:00,
2013-03-01 02:56:00,32.8,26.6,30.07,SSE,158,3.4,4.3,78,0.00,,,0.00,WUHU216HW,2013-03-01 09:56:00,
2013-03-01 02:57:00,32.8,27.0,30.07,South,180,4.7,5.1,79,0.00,,,0.00,WUHU216HW,2013-03-01 09:57:00,
2013-03-01 02:58:00,32.8,27.0,30.07,South,180,4.9,5.1,79,0.00,,,0.00,WUHU216HW,2013-03-01 09:58:00,
2013-03-01 03:02:00,32.8,26.6,30.07,SSW,203,1.6,5.1,78,0.00,,,0.00,WUHU216HW,2013-03-01 10:02:00,
2013-03-01 03:03:00,32.8,26.6,30.07,SE,135,5.1,5.1,78,0.00,,,0.00,WUHU216HW,2013-03-01 10:03:00,
2013-03-01 03:04:00,32.8,27.0,30.06,SE,135,5.4,5.4,79,0.00,,,0.00,WUHU216HW,2013-03-01 10:04:00,
2013-03-01 03:07:00,32.8,27.0,30.07,SSE,158,3.1,5.4,79,0.00,,,0.00,WUHU216HW,2013-03-01 10:07:00,
2013-03-01 03:08:00,32.8,27.0,30.07,SSE,158,2.5,5.4,79,0.00,,,0.00,WUHU216HW,2013-03-01 10:08:00,
2013-03-01 03:09:00,32.9,26.8,30.07,South,180,3.6,5.4,78,0.00,,,0.00,WUHU216HW,2013-03-01 10:09:00,
2013-03-01 03:12:00,32.9,27.1,30.07,SE,135,2.9,5.4,79,0.00,,,0.00,WUHU216HW,2013-03-01 10:12:00,
2013-03-01 03:13:00,32.9,26.8,30.07,SE,135,1.8,5.4,78,0.00,,,0.00,WUHU216HW,2013-03-01 10:13:00,
2013-03-01 03:14:00,32.9,26.8,30.07,South,180,1.8,5.4,78,0.00,,,0.00,WUHU216HW,2013-03-01 10:14:00,
2013-03-01 03:17:00,33.1,27.3,30.07,SE,135,4.9,5.1,79,0.00,,,0.00,WUHU216HW,2013-03-01 10:17:00,
2013-03-01 03:18:00,33.1,27.0,30.07,SE,135,4.5,5.1,78,0.00,,,0.00,WUHU216HW,2013-03-01 10:18:00,
2013-03-01 03:19:00,33.1,27.0,30.07,SE,135,5.4,5.4,78,0.00,,,0.00,WUHU216HW,2013-03-01 10:19:00,
2013-03-01 03:22:00,33.1,27.3,30.07,SE,135,3.6,6.3,79,0.00,,,0.00,WUHU216HW,2013-03-01 10:22:00,
2013-03-01 03:23:00,33.1,27.3,30.07,SE,135,4.5,6.3,79,0.00,,,0.00,WUHU216HW,2013-03-01 10:23:00,
2013-03-01 03:24:00,33.1,27.0,30.07,SE,135,4.5,6.3,78,0.00,,,0.00,WUHU216HW,2013-03-01 10:24:00,
2013-03-01 03:28:00,33.3,27.5,30.07,SSE,158,0.4,6.3,79,0.00,,,0.00,WUHU216HW,2013-03-01 10:28:00,
2013-03-01 03:29:00,33.3,27.1,30.07,SSE,158,1.8,6.3,78,0.00,,,0.00,WUHU216HW,2013-03-01 10:29:00,
2013-03-01 03:33:00,33.3,27.1,30.07,East,90,1.6,5.4,78,0.00,,,0.00,WUHU216HW,2013-03-01 10:33:00,
2013-03-01 03:34:00,33.3,27.1,30.07,ESE,113,2.9,5.4,78,0.00,,,0.00,WUHU216HW,2013-03-01 10:34:00,
2013-03-01 03:38:00,33.3,27.1,30.07,SE,135,1.1,3.6,78,0.00,,,0.00,WUHU216HW,2013-03-01 10:38:00,
2013-03-01 03:39:00,33.3,27.1,30.07,SE,135,5.8,5.8,78,0.00,,,0.00,WUHU216HW,2013-03-01 10:39:00,
2013-03-01 03:40:00,33.5,27.3,30.07,ESE,113,5.4,8.1,78,0.00,,,0.00,WUHU216HW,2013-03-01 10:40:00,
2013-03-01 03:43:00,33.5,27.3,30.07,East,90,4.7,8.1,78,0.00,,,0.00,WUHU216HW,2013-03-01 10:43:00,
2013-03-01 03:44:00,33.5,27.3,30.07,ESE,113,4.9,8.1,78,0.00,,,0.00,WUHU216HW,2013-03-01 10:44:00,
2013-03-01 03:45:00,33.5,27.3,30.07,SE,135,5.4,8.1,78,0.00,,,0.00,WUHU216HW,2013-03-01 10:45:00,
2013-03-01 03:48:00,33.5,27.3,30.07,East,90,6.3,8.1,78,0.00,,,0.00,WUHU216HW,2013-03-01 10:48:00,
2013-03-01 03:49:00,33.5,27.3,30.07,ESE,113,6.3,8.1,78,0.00,,,0.00,WUHU216HW,2013-03-01 10:49:00,
2013-03-01 03:50:00,33.7,27.5,30.07,SE,135,4.9,6.5,78,0.00,,,0.00,WUHU216HW,2013-03-01 10:50:00,
2013-03-01 03:53:00,33.8,27.6,30.07,SE,135,6.9,8.7,78,0.00,,,0.00,WUHU216HW,2013-03-01 10:53:00,
2013-03-01 03:54:00,33.8,27.6,30.07,SE,135,10.1,10.1,78,0.00,,,0.00,WUHU216HW,2013-03-01 10:54:00,
2013-03-01 03:55:00,33.8,27.6,30.07,SSE,158,6.5,10.1,78,0.00,,,0.00,WUHU216HW,2013-03-01 10:55:00,
2013-03-01 03:58:00,34.2,28.0,30.07,SSE,158,4.7,10.1,78,0.00,,,0.00,WUHU216HW,2013-03-01 10:58:00,
2013-03-01 03:59:00,34.2,28.0,30.07,SE,135,4.5,10.1,78,0.00,,,0.00,WUHU216HW,2013-03-01 10:59:00,
2013-03-01 04:01:00,34.4,27.8,30.07,ESE,113,5.4,10.1,77,0.00,,,0.00,WUHU216HW,2013-03-01 11:01:00,
2013-03-01 04:03:00,34.6,28.0,30.07,SE,135,10.3,10.3,77,0.00,,,0.00,WUHU216HW,2013-03-01 11:03:00,
2013-03-01 04:04:00,34.6,28.0,30.07,SE,135,9.8,10.3,77,0.00,,,0.00,WUHU216HW,2013-03-01 11:04:00,
2013-03-01 04:05:00,34.6,28.0,30.07,SE,135,8.5,10.3,77,0.00,,,0.00,WUHU216HW,2013-03-01 11:05:00,
2013-03-01 04:06:00,34.6,28.0,30.07,SE,135,5.1,10.3,77,0.00,,,0.00,WUHU216HW,2013-03-01 11:06:00,
2013-03-01 04:09:00,34.7,27.9,30.07,SSE,158,5.4,10.3,76,0.00,,,0.00,WUHU216HW,2013-03-01 11:09:00,
2013-03-01 04:10:00,34.6,27.7,30.07,SSE,158,5.4,10.3,76,0.00,,,0.00,WUHU216HW,2013-03-01 11:10:00,
2013-03-01 04:11:00,34.6,27.7,30.07,South,180,4.0,10.3,76,0.00,,,0.00,WUHU216HW,2013-03-01 11:11:00,
2013-03-01 04:14:00,34.6,27.7,30.08,SW,225,0.9,9.8,76,0.00,,,0.00,WUHU216HW,2013-03-01 11:14:00,
2013-03-01 04:15:00,34.4,27.6,30.08,SSE,158,4.7,5.8,76,0.00,,,0.00,WUHU216HW,2013-03-01 11:15:00,
2013-03-01 04:16:00,34.4,27.6,30.08,SSE,158,3.6,5.4,76,0.00,,,0.00,WUHU216HW,2013-03-01 11:16:00,
2013-03-01 04:19:00,34.4,27.6,30.08,SSE,158,4.9,5.4,76,0.00,,,0.00,WUHU216HW,2013-03-01 11:19:00,
2013-03-01 04:21:00,34.2,27.4,30.07,SE,135,4.9,5.4,76,0.00,,,0.00,WUHU216HW,2013-03-01 11:21:00,
2013-03-01 04:24:00,34.2,27.4,30.07,SE,135,3.8,7.4,76,0.00,,,0.00,WUHU216HW,2013-03-01 11:24:00,
2013-03-01 04:26:00,34.2,27.6,30.07,SE,135,9.2,10.1,77,0.00,,,0.00,WUHU216HW,2013-03-01 11:26:00,
2013-03-01 04:29:00,34.0,27.5,30.06,SE,135,8.3,10.1,77,0.00,,,0.00,WUHU216HW,2013-03-01 11:29:00,
2013-03-01 04:31:00,33.8,27.6,30.07,SE,135,11.0,11.0,78,0.00,,,0.00,WUHU216HW,2013-03-01 11:31:00,
2013-03-01 04:34:00,33.7,27.5,30.06,SSE,158,10.5,11.6,78,0.00,,,0.00,WUHU216HW,2013-03-01 11:34:00,
2013-03-01 04:36:00,33.7,27.5,30.06,SSE,158,6.5,11.6,78,0.00,,,0.00,WUHU216HW,2013-03-01 11:36:00,
2013-03-01 04:37:00,33.7,27.5,30.06,SSE,158,6.9,11.6,78,0.00,,,0.00,WUHU216HW,2013-03-01 11:37:00,
2013-03-01 04:39:00,33.5,27.3,30.07,SSE,158,6.7,11.6,78,0.00,,,0.00,WUHU216HW,2013-03-01 11:39:00,
2013-03-01 04:41:00,33.5,27.3,30.07,SE,135,6.5,11.6,78,0.00,,,0.00,WUHU216HW,2013-03-01 11:41:00,
2013-03-01 04:42:00,33.5,27.3,30.07,SE,135,6.9,11.6,78,0.00,,,0.00,WUHU216HW,2013-03-01 11:42:00,
2013-03-01 04:44:00,33.5,27.3,30.07,SSE,158,4.5,10.3,78,0.00,,,0.00,WUHU216HW,2013-03-01 11:44:00,
2013-03-01 04:45:00,33.5,27.3,30.08,SSE,158,4.5,10.3,78,0.00,,,0.00,WUHU216HW,2013-03-01 11:45:00,
2013-03-01 04:46:00,33.5,27.3,30.08,SE,135,4.7,8.1,78,0.00,,,0.00,WUHU216HW,2013-03-01 11:46:00,
2013-03-01 04:47:00,33.5,27.3,30.07,SE,135,5.8,7.6,78,0.00,,,0.00,WUHU216HW,2013-03-01 11:47:00,
2013-03-01 04:50:00,33.5,27.3,30.07,SE,135,5.8,7.6,78,0.00,,,0.00,WUHU216HW,2013-03-01 11:50:00,
2013-03-01 04:52:00,33.5,27.3,30.07,SSE,158,2.5,7.4,78,0.00,,,0.00,WUHU216HW,2013-03-01 11:52:00,
2013-03-01 04:53:00,33.3,27.1,30.07,SSE,158,4.7,6.9,78,0.00,,,0.00,WUHU216HW,2013-03-01 11:53:00,
2013-03-01 04:55:00,33.3,27.5,30.07,SSE,158,6.9,7.8,79,0.00,,,0.00,WUHU216HW,2013-03-01 11:55:00,
2013-03-01 04:57:00,33.3,27.1,30.07,SSE,158,6.3,7.8,78,0.00,,,0.00,WUHU216HW,2013-03-01 11:57:00,
2013-03-01 04:58:00,33.3,27.1,30.07,SSE,158,5.6,7.8,78,0.00,,,0.00,WUHU216HW,2013-03-01 11:58:00,
2013-03-01 05:00:00,33.3,27.5,30.07,SSE,158,4.7,7.8,79,0.00,,,0.00,WUHU216HW,2013-03-01 12:00:00,
2013-03-01 05:02:00,33.3,27.1,30.07,SSE,158,5.8,7.8,78,0.00,,,0.00,WUHU216HW,2013-03-01 12:02:00,
2013-03-01 05:03:00,33.3,27.5,30.07,SSW,203,6.5,7.8,79,0.00,,,0.00,WUHU216HW,2013-03-01 12:03:00,
2013-03-01 05:05:00,33.3,27.1,30.07,SE,135,5.6,6.9,78,0.00,,,0.00,WUHU216HW,2013-03-01 12:05:00,
2013-03-01 05:08:00,33.3,27.5,30.07,SE,135,6.3,6.7,79,0.00,,,0.00,WUHU216HW,2013-03-01 12:08:00,
2013-03-01 05:10:00,33.3,27.5,30.07,SE,135,4.5,6.7,79,0.00,,,0.00,WUHU216HW,2013-03-01 12:10:00,
2013-03-01 05:13:00,33.3,27.1,30.07,SSE,158,3.8,6.7,78,0.00,,,0.00,WUHU216HW,2013-03-01 12:13:00,
2013-03-01 05:15:00,33.5,27.3,30.07,SE,135,5.1,6.7,78,0.00,,,0.00,WUHU216HW,2013-03-01 12:15:00,
2013-03-01 05:16:00,33.5,27.6,30.07,SE,135,6.3,6.7,79,0.00,,,0.00,WUHU216HW,2013-03-01 12:16:00,
2013-03-01 05:18:00,33.5,27.6,30.07,ESE,113,5.6,6.3,79,0.00,,,0.00,WUHU216HW,2013-03-01 12:18:00,
2013-03-01 05:20:00,33.7,27.5,30.07,SSE,158,5.6,6.5,78,0.00,,,0.00,WUHU216HW,2013-03-01 12:20:00,
2013-03-01 05:21:00,33.7,27.5,30.07,SSE,158,5.6,6.5,78,0.00,,,0.00,WUHU216HW,2013-03-01 12:21:00,
2013-03-01 05:23:00,33.8,27.6,30.07,ESE,113,1.8,6.5,78,0.00,,,0.00,WUHU216HW,2013-03-01 12:23:00,
2013-03-01 05:25:00,34.0,27.8,30.07,SE,135,1.1,6.5,78,0.00,,,0.00,WUHU216HW,2013-03-01 12:25:00,
2013-03-01 05:26:00,34.0,27.8,30.07,SE,135,1.1,6.5,78,0.00,,,0.00,WUHU216HW,2013-03-01 12:26:00,
2013-03-01 05:28:00,34.0,27.8,30.07,SSE,158,3.4,6.5,78,0.00,,,0.00,WUHU216HW,2013-03-01 12:28:00,
2013-03-01 05:30:00,34.0,27.5,30.06,SSE,158,8.9,10.3,77,0.00,,,0.00,WUHU216HW,2013-03-01 12:30:00,
2013-03-01 05:31:00,34.0,27.5,30.06,SSE,158,8.9,10.3,77,0.00,,,0.00,WUHU216HW,2013-03-01 12:31:00,
2013-03-01 05:33:00,34.2,27.4,30.06,SE,135,8.5,10.3,76,0.00,,,0.00,WUHU216HW,2013-03-01 12:33:00,
2013-03-01 05:34:00,34.2,27.4,30.07,South,180,6.5,10.3,76,0.00,,,0.00,WUHU216HW,2013-03-01 12:34:00,
2013-03-01 05:36:00,34.4,27.6,30.07,SSE,158,5.4,10.3,76,0.00,,,0.00,WUHU216HW,2013-03-01 12:36:00,
2013-03-01 05:38:00,34.4,27.6,30.06,SSE,158,6.3,10.3,76,0.00,,,0.00,WUHU216HW,2013-03-01 12:38:00,
2013-03-01 05:39:00,34.6,27.7,30.06,SSE,158,6.9,10.3,76,0.00,,,0.00,WUHU216HW,2013-03-01 12:39:00,
2013-03-01 05:41:00,34.6,27.7,30.06,South,180,5.8,9.8,76,0.00,,,0.00,WUHU216HW,2013-03-01 12:41:00,
2013-03-01 05:43:00,34.6,27.7,30.07,South,180,4.3,8.5,76,0.00,,,0.00,WUHU216HW,2013-03-01 12:43:00,
2013-03-01 05:44:00,34.6,27.7,30.06,SSW,203,3.4,6.9,76,0.00,,,0.00,WUHU216HW,2013-03-01 12:44:00,
2013-03-01 05:46:00,34.6,27.7,30.06,SW,225,4.3,6.9,76,0.00,,,0.00,WUHU216HW,2013-03-01 12:46:00,
2013-03-01 05:47:00,34.6,27.7,30.07,SW,225,3.6,6.9,76,0.00,,,0.00,WUHU216HW,2013-03-01 12:47:00,
2013-03-01 05:48:00,34.4,27.6,30.07,SSW,203,4.7,6.9,76,0.00,,,0.00,WUHU216HW,2013-03-01 12:48:00,
2013-03-01 05:49:00,34.6,27.7,30.07,SSW,203,4.7,6.7,76,0.00,,,0.00,WUHU216HW,2013-03-01 12:49:00,
2013-03-01 05:51:00,34.6,27.7,30.07,SW,225,2.5,5.8,76,0.00,,,0.00,WUHU216HW,2013-03-01 12:51:00,
2013-03-01 05:52:00,34.6,27.7,30.07,SSW,203,2.5,5.1,76,0.00,,,0.00,WUHU216HW,2013-03-01 12:52:00,
2013-03-01 05:54:00,34.6,27.7,30.07,SW,225,0.0,4.7,76,0.00,,,0.00,WUHU216HW,2013-03-01 12:54:00,
2013-03-01 05:56:00,34.6,27.7,30.07,South,180,2.9,4.7,76,0.00,,,0.00,WUHU216HW,2013-03-01 12:56:00,
2013-03-01 05:57:00,34.6,27.7,30.07,SSW,203,1.1,4.7,76,0.00,,,0.00,WUHU216HW,2013-03-01 12:57:00,
2013-03-01 05:59:00,34.6,27.7,30.07,SW,225,0.4,4.7,76,0.00,,,0.00,WUHU216HW,2013-03-01 12:59:00,
2013-03-01 06:01:00,34.6,27.7,30.07,ESE,113,1.3,3.4,76,0.00,,,0.00,WUHU216HW,2013-03-01 13:01:00,
2013-03-01 06:02:00,34.6,27.7,30.07,SSE,158,1.8,3.4,76,0.00,,,0.00,WUHU216HW,2013-03-01 13:02:00,
2013-03-01 06:04:00,34.6,27.7,30.07,SSW,203,1.8,3.4,76,0.00,,,0.00,WUHU216HW,2013-03-01 13:04:00,
2013-03-01 06:06:00,34.7,27.9,30.07,SE,135,1.8,2.5,76,0.00,,,0.00,WUHU216HW,2013-03-01 13:06:00,
2013-03-01 06:07:00,34.7,27.9,30.07,SE,135,1.3,2.2,76,0.00,,,0.00,WUHU216HW,2013-03-01 13:07:00,
2013-03-01 06:09:00,34.7,27.9,30.07,South,180,1.8,2.2,76,0.00,,,0.00,WUHU216HW,2013-03-01 13:09:00,
2013-03-01 06:11:00,34.7,27.5,30.07,SSE,158,0.7,2.7,75,0.00,,,0.00,WUHU216HW,2013-03-01 13:11:00,
2013-03-01 06:12:00,34.9,27.7,30.07,SSE,158,0.4,2.7,75,0.00,,,0.00,WUHU216HW,2013-03-01 13:12:00,
2013-03-01 06:14:00,34.9,27.7,30.07,SSE,158,0.0,2.7,75,0.00,,,0.00,WUHU216HW,2013-03-01 13:14:00,
2013-03-01 06:16:00,34.9,27.7,30.07,SSW,203,2.2,2.7,75,0.00,,,0.00,WUHU216HW,2013-03-01 13:16:00,
2013-03-01 06:17:00,34.9,27.7,30.07,South,180,2.9,2.9,75,0.00,,,0.00,WUHU216HW,2013-03-01 13:17:00,
2013-03-01 06:19:00,34.9,27.7,30.07,South,180,2.5,4.5,75,0.00,,,0.00,WUHU216HW,2013-03-01 13:19:00,
2013-03-01 06:21:00,34.9,27.7,30.07,SSW,203,3.1,4.5,75,0.00,,,0.00,WUHU216HW,2013-03-01 13:21:00,
2013-03-01 06:22:00,34.9,27.7,30.07,SW,225,2.5,4.5,75,0.00,,,0.00,WUHU216HW,2013-03-01 13:22:00,
2013-03-01 06:24:00,34.9,27.7,30.07,South,180,1.1,4.5,75,0.00,,,0.00,WUHU216HW,2013-03-01 13:24:00,
2013-03-01 06:26:00,35.1,27.9,30.07,SW,225,1.6,4.5,75,0.00,,,0.00,WUHU216HW,2013-03-01 13:26:00,
2013-03-01 06:27:00,35.1,27.9,30.07,SW,225,1.8,4.5,75,0.00,,,0.00,WUHU216HW,2013-03-01 13:27:00,
2013-03-01 06:29:00,35.1,27.9,30.07,SW,225,2.5,3.6,75,0.00,,,0.00,WUHU216HW,2013-03-01 13:29:00,
2013-03-01 06:32:00,35.3,28.1,30.07,SW,225,1.8,3.1,75,0.00,,,0.00,WUHU216HW,2013-03-01 13:32:00,
2013-03-01 06:33:00,35.3,28.1,30.07,SW,225,1.1,3.1,75,0.00,,,0.00,WUHU216HW,2013-03-01 13:33:00,
2013-03-01 06:34:00,35.3,28.1,30.07,SW,225,1.6,2.5,75,0.00,,,0.00,WUHU216HW,2013-03-01 13:34:00,
2013-03-01 06:37:00,35.3,28.1,30.07,WSW,248,3.6,3.6,75,0.00,,,0.00,WUHU216HW,2013-03-01 13:37:00,
2013-03-01 06:38:00,35.3,28.1,30.07,WSW,248,3.6,3.6,75,0.00,,,0.00,WUHU216HW,2013-03-01 13:38:00,
2013-03-01 06:39:00,35.5,28.3,30.07,SW,225,1.8,3.6,75,0.00,,,0.00,WUHU216HW,2013-03-01 13:39:00,
2013-03-01 06:42:00,35.5,28.3,30.07,WSW,248,1.1,3.6,75,0.00,,,0.00,WUHU216HW,2013-03-01 13:42:00,
2013-03-01 06:43:00,35.5,28.3,30.07,WSW,248,1.8,3.6,75,0.00,,,0.00,WUHU216HW,2013-03-01 13:43:00,
2013-03-01 06:44:00,35.5,28.3,30.07,SSE,158,1.3,3.6,75,0.00,,,0.00,WUHU216HW,2013-03-01 13:44:00,
2013-03-01 06:47:00,35.5,27.9,30.08,SE,135,0.0,3.6,74,0.00,,,0.00,WUHU216HW,2013-03-01 13:47:00,
2013-03-01 06:48:00,35.3,27.7,30.08,SE,135,0.0,3.6,74,0.00,,,0.00,WUHU216HW,2013-03-01 13:48:00,
2013-03-01 06:49:00,35.5,28.3,30.08,East,90,4.0,4.0,75,0.00,,,0.00,WUHU216HW,2013-03-01 13:49:00,
2013-03-01 06:52:00,35.5,28.3,30.07,ESE,113,3.1,4.9,75,0.00,,,0.00,WUHU216HW,2013-03-01 13:52:00,
2013-03-01 06:53:00,35.5,28.3,30.07,ESE,113,1.6,4.9,75,0.00,,,0.00,WUHU216HW,2013-03-01 13:53:00,
2013-03-01 06:55:00,35.3,28.1,30.08,SW,225,1.1,4.9,75,0.00,,,0.00,WUHU216HW,2013-03-01 13:55:00,
2013-03-01 06:57:00,35.3,28.1,30.07,SE,135,4.7,4.9,75,0.00,,,0.00,WUHU216HW,2013-03-01 13:57:00,
2013-03-01 06:58:00,35.3,28.1,30.07,SE,135,4.3,4.9,75,0.00,,,0.00,WUHU216HW,2013-03-01 13:58:00,
2013-03-01 07:00:00,35.3,27.7,30.07,SSE,158,2.2,4.9,74,0.00,,,0.00,WUHU216HW,2013-03-01 14:00:00,
2013-03-01 07:02:00,35.3,27.7,30.07,SE,135,4.0,4.7,74,0.00,,,0.00,WUHU216HW,2013-03-01 14:02:00,
2013-03-01 07:03:00,35.3,27.7,30.07,ESE,113,3.4,4.7,74,0.00,,,0.00,WUHU216HW,2013-03-01 14:03:00,
2013-03-01 07:05:00,35.1,27.5,30.07,SE,135,1.3,4.7,74,0.00,,,0.00,WUHU216HW,2013-03-01 14:05:00,
2013-03-01 07:07:00,35.1,27.5,30.07,SW,225,1.3,4.7,74,0.00,,,0.00,WUHU216HW,2013-03-01 14:07:00,
2013-03-01 07:08:00,35.1,27.5,30.07,SSW,203,1.8,4.7,74,0.00,,,0.00,WUHU216HW,2013-03-01 14:08:00,
2013-03-01 07:11:00,35.1,27.5,30.07,SE,135,5.6,5.6,74,0.00,,,0.00,WUHU216HW,2013-03-01 14:11:00,
2013-03-01 07:13:00,35.1,27.5,30.06,SSE,158,4.7,6.3,74,0.00,,,0.00,WUHU216HW,2013-03-01 14:13:00,
2013-03-01 07:16:00,34.9,27.4,30.07,South,180,4.7,6.5,74,0.00,,,0.00,WUHU216HW,2013-03-01 14:16:00,
2013-03-01 07:18:00,34.9,27.4,30.07,SSE,158,4.9,6.5,74,0.00,,,0.00,WUHU216HW,2013-03-01 14:18:00,
2013-03-01 07:19:00,34.9,27.4,30.06,SSE,158,5.4,6.5,74,0.00,,,0.00,WUHU216HW,2013-03-01 14:19:00,
2013-03-01 07:21:00,34.9,27.4,30.07,SE,135,4.9,6.5,74,0.00,,,0.00,WUHU216HW,2013-03-01 14:21:00,
2013-03-01 07:23:00,34.9,27.4,30.06,SE,135,3.4,6.5,74,0.00,,,0.00,WUHU216HW,2013-03-01 14:23:00,
2013-03-01 07:24:00,34.9,27.4,30.06,South,180,4.3,6.5,74,0.00,,,0.00,WUHU216HW,2013-03-01 14:24:00,
2013-03-01 07:26:00,34.9,27.4,30.07,South,180,4.0,5.4,74,0.00,,,0.00,WUHU216HW,2013-03-01 14:26:00,
2013-03-01 07:28:00,34.7,27.2,30.06,SE,135,4.0,5.4,74,0.00,,,0.00,WUHU216HW,2013-03-01 14:28:00,
2013-03-01 07:29:00,34.9,27.4,30.06,SE,135,3.4,4.9,74,0.00,,,0.00,WUHU216HW,2013-03-01 14:29:00,
2013-03-01 07:31:00,34.9,27.4,30.07,SSE,158,2.2,4.7,74,0.00,,,0.00,WUHU216HW,2013-03-01 14:31:00,
2013-03-01 07:33:00,34.9,27.4,30.07,SE,135,2.9,4.3,74,0.00,,,0.00,WUHU216HW,2013-03-01 14:33:00,
2013-03-01 07:34:00,34.9,27.1,30.07,SSE,158,3.1,4.3,73,0.00,,,0.00,WUHU216HW,2013-03-01 14:34:00,
2013-03-01 07:36:00,34.9,27.1,30.07,SSE,158,1.8,4.3,73,0.00,,,0.00,WUHU216HW,2013-03-01 14:36:00,
2013-03-01 07:38:00,34.9,27.1,30.06,SSW,203,4.0,4.3,73,0.00,,,0.00,WUHU216HW,2013-03-01 14:38:00,
2013-03-01 07:39:00,34.9,27.1,30.06,SSW,203,3.4,4.0,73,0.00,,,0.00,WUHU216HW,2013-03-01 14:39:00,
2013-03-01 07:41:00,35.1,27.5,30.06,SW,225,2.2,4.0,74,0.00,,,0.00,WUHU216HW,2013-03-01 14:41:00,
2013-03-01 07:43:00,35.1,27.5,30.06,WSW,248,4.0,4.3,74,0.00,,,0.00,WUHU216HW,2013-03-01 14:43:00,
2013-03-01 07:44:00,34.9,27.4,30.06,SW,225,3.6,4.3,74,0.00,,,0.00,WUHU216HW,2013-03-01 14:44:00,
2013-03-01 07:45:00,34.9,27.4,30.07,SW,225,3.4,4.3,74,0.00,,,0.00,WUHU216HW,2013-03-01 14:45:00,
2013-03-01 07:46:00,35.1,27.5,30.06,SSW,203,3.4,4.3,74,0.00,,,0.00,WUHU216HW,2013-03-01 14:46:00,
2013-03-01 07:48:00,35.1,27.3,30.06,SSE,158,3.1,4.3,73,0.00,,,0.00,WUHU216HW,2013-03-01 14:48:00,
2013-03-01 07:49:00,35.1,27.3,30.06,SSW,203,2.5,4.3,73,0.00,,,0.00,WUHU216HW,2013-03-01 14:49:00,
2013-03-01 07:51:00,35.3,27.5,30.07,SSE,158,2.5,4.3,73,0.00,,,0.00,WUHU216HW,2013-03-01 14:51:00,
2013-03-01 07:53:00,35.3,27.5,30.06,SE,135,5.4,5.4,73,0.00,,,0.00,WUHU216HW,2013-03-01 14:53:00,
2013-03-01 07:54:00,35.3,27.5,30.06,SSE,158,4.3,5.4,73,0.00,,,0.00,WUHU216HW,2013-03-01 14:54:00,
2013-03-01 07:56:00,35.5,27.6,30.07,SSE,158,2.5,5.4,73,0.00,,,0.00,WUHU216HW,2013-03-01 14:56:00,
2013-03-01 07:58:00,35.5,27.6,30.06,ESE,113,3.6,5.4,73,0.00,,,0.00,WUHU216HW,2013-03-01 14:58:00,
2013-03-01 07:59:00,35.5,27.6,30.07,SE,135,2.9,5.4,73,0.00,,,0.00,WUHU216HW,2013-03-01 14:59:00,
2013-03-01 08:01:00,35.6,27.8,30.07,SSE,158,2.0,5.4,73,0.00,,,0.00,WUHU216HW,2013-03-01 15:01:00,
2013-03-01 08:04:00,35.6,27.8,30.06,SSE,158,2.7,5.4,73,0.00,,,0.00,WUHU216HW,2013-03-01 15:04:00,
2013-03-01 08:06:00,35.6,27.8,30.07,South,180,2.7,4.0,73,0.00,,,0.00,WUHU216HW,2013-03-01 15:06:00,
2013-03-01 08:09:00,35.8,28.0,30.07,SSW,203,2.0,3.8,73,0.00,,,0.00,WUHU216HW,2013-03-01 15:09:00,
2013-03-01 08:11:00,35.8,28.0,30.06,SW,225,2.0,3.8,73,0.00,,,0.00,WUHU216HW,2013-03-01 15:11:00,
2013-03-01 08:14:00,35.8,28.0,30.06,SSW,203,3.4,3.6,73,0.00,,,0.00,WUHU216HW,2013-03-01 15:14:00,
2013-03-01 08:16:00,36.0,28.2,30.06,SSE,158,2.5,3.8,73,0.00,,,0.00,WUHU216HW,2013-03-01 15:16:00,
2013-03-01 08:19:00,36.2,28.4,30.06,SSE,158,2.2,3.8,73,0.00,,,0.00,WUHU216HW,2013-03-01 15:19:00,
2013-03-01 08:20:00,36.2,28.4,30.05,SSE,158,2.9,3.8,73,0.00,,,0.00,WUHU216HW,2013-03-01 15:20:00,
2013-03-01 08:21:00,36.2,28.4,30.05,SSW,203,2.5,3.8,73,0.00,,,0.00,WUHU216HW,2013-03-01 15:21:00,
2013-03-01 08:24:00,36.2,28.4,30.05,SW,225,2.2,3.8,73,0.00,,,0.00,WUHU216HW,2013-03-01 15:24:00,
2013-03-01 08:25:00,36.4,28.5,30.05,SSW,203,1.8,3.8,73,0.00,,,0.00,WUHU216HW,2013-03-01 15:25:00,
2013-03-01 08:26:00,36.4,28.5,30.05,SW,225,1.8,3.4,73,0.00,,,0.00,WUHU216HW,2013-03-01 15:26:00,
2013-03-01 08:29:00,36.5,28.7,30.05,SSE,158,1.3,3.4,73,0.00,,,0.00,WUHU216HW,2013-03-01 15:29:00,
2013-03-01 08:30:00,36.5,28.7,30.05,South,180,0.7,3.4,73,0.00,,,0.00,WUHU216HW,2013-03-01 15:30:00,
2013-03-01 08:31:00,36.5,28.7,30.05,SSW,203,0.4,3.1,73,0.00,,,0.00,WUHU216HW,2013-03-01 15:31:00,
2013-03-01 08:32:00,36.7,28.9,30.05,SSW,203,0.4,3.1,73,0.00,,,0.00,WUHU216HW,2013-03-01 15:32:00,
2013-03-01 08:34:00,36.9,29.1,30.05,SE,135,0.0,2.2,73,0.00,,,0.00,WUHU216HW,2013-03-01 15:34:00,
2013-03-01 08:35:00,36.9,29.1,30.05,WSW,248,0.9,2.2,73,0.00,,,0.00,WUHU216HW,2013-03-01 15:35:00,
2013-03-01 08:36:00,36.9,28.7,30.05,WNW,293,2.5,2.5,72,0.00,,,0.00,WUHU216HW,2013-03-01 15:36:00,
2013-03-01 08:37:00,36.9,29.1,30.05,WNW,293,2.5,2.5,73,0.00,,,0.00,WUHU216HW,2013-03-01 15:37:00,
2013-03-01 08:39:00,36.9,29.1,30.05,WNW,293,0.0,2.5,73,0.00,,,0.00,WUHU216HW,2013-03-01 15:39:00,
2013-03-01 08:40:00,37.1,29.3,30.05,ESE,113,0.9,2.5,73,0.00,,,0.00,WUHU216HW,2013-03-01 15:40:00,
2013-03-01 08:42:00,37.1,29.3,30.05,ENE,68,1.8,2.5,73,0.00,,,0.00,WUHU216HW,2013-03-01 15:42:00,
2013-03-01 08:44:00,37.1,28.9,30.05,NE,45,2.5,3.4,72,0.00,,,0.00,WUHU216HW,2013-03-01 15:44:00,
2013-03-01 08:46:00,37.1,29.3,30.05,NE,45,3.1,3.4,73,0.00,,,0.00,WUHU216HW,2013-03-01 15:46:00,
2013-03-01 08:47:00,37.1,28.9,30.05,NE,45,2.7,3.4,72,0.00,,,0.00,WUHU216HW,2013-03-01 15:47:00,
2013-03-01 08:50:00,37.1,28.9,30.05,NE,45,2.0,3.4,72,0.00,,,0.00,WUHU216HW,2013-03-01 15:50:00,
2013-03-01 08:51:00,37.1,29.3,30.05,North,0,3.1,3.4,73,0.00,,,0.00,WUHU216HW,2013-03-01 15:51:00,
2013-03-01 08:52:00,37.1,29.5,30.05,NE,45,2.9,4.0,74,0.00,,,0.00,WUHU216HW,2013-03-01 15:52:00,
2013-03-01 08:55:00,36.7,29.2,30.05,NE,45,5.4,6.9,74,0.00,,,0.00,WUHU216HW,2013-03-01 15:55:00,
2013-03-01 08:56:00,36.7,29.2,30.05,NE,45,4.0,6.9,74,0.00,,,0.00,WUHU216HW,2013-03-01 15:56:00,
2013-03-01 08:57:00,36.4,28.5,30.05,NE,45,5.4,6.9,73,0.00,,,0.00,WUHU216HW,2013-03-01 15:57:00,
2013-03-01 09:00:00,36.4,28.5,30.06,NE,45,8.5,10.3,73,0.00,,,0.00,WUHU216HW,2013-03-01 16:00:00,
2013-03-01 09:01:00,36.2,28.4,30.06,NE,45,8.5,10.3,73,0.00,,,0.00,WUHU216HW,2013-03-01 16:01:00,
2013-03-01 09:02:00,36.0,28.2,30.06,NE,45,9.8,10.3,73,0.00,,,0.00,WUHU216HW,2013-03-01 16:02:00,
2013-03-01 09:05:00,35.8,28.3,30.07,East,90,7.4,12.1,74,0.00,,,0.00,WUHU216HW,2013-03-01 16:05:00,
2013-03-01 09:06:00,36.0,28.2,30.07,ESE,113,6.7,12.1,73,0.00,,,0.00,WUHU216HW,2013-03-01 16:06:00,
2013-03-01 09:07:00,36.0,28.2,30.07,East,90,4.7,12.1,73,0.00,,,0.00,WUHU216HW,2013-03-01 16:07:00,
2013-03-01 09:10:00,36.4,28.5,30.07,ESE,113,0.4,12.1,73,0.00,,,0.00,WUHU216HW,2013-03-01 16:10:00,
2013-03-01 09:11:00,36.5,29.0,30.08,ENE,68,3.8,12.1,74,0.00,,,0.00,WUHU216HW,2013-03-01 16:11:00,
2013-03-01 09:12:00,36.5,28.7,30.08,East,90,3.4,12.1,73,0.00,,,0.00,WUHU216HW,2013-03-01 16:12:00,
2013-03-01 09:15:00,37.1,28.9,30.08,East,90,6.3,7.4,72,0.00,,,0.00,WUHU216HW,2013-03-01 16:15:00,
2013-03-01 09:16:00,37.1,28.9,30.08,East,90,5.4,7.2,72,0.00,,,0.00,WUHU216HW,2013-03-01 16:16:00,
2013-03-01 09:17:00,37.1,28.9,30.08,East,90,5.4,7.2,72,0.00,,,0.00,WUHU216HW,2013-03-01 16:17:00,
2013-03-01 09:18:00,37.1,28.9,30.08,East,90,6.0,7.2,72,0.00,,,0.00,WUHU216HW,2013-03-01 16:18:00,
2013-03-01 09:20:00,37.3,29.1,30.08,NNE,23,2.0,7.2,72,0.00,,,0.00,WUHU216HW,2013-03-01 16:20:00,
2013-03-01 09:21:00,37.4,28.6,30.08,North,0,1.8,7.2,70,0.00,,,0.00,WUHU216HW,2013-03-01 16:21:00,
2013-03-01 09:22:00,37.4,28.6,30.08,North,0,1.6,7.2,70,0.00,,,0.00,WUHU216HW,2013-03-01 16:22:00,
2013-03-01 09:23:00,37.4,28.6,30.08,NNE,23,6.3,7.2,70,0.00,,,0.00,WUHU216HW,2013-03-01 16:23:00,
2013-03-01 09:25:00,37.4,29.0,30.08,NE,45,4.7,7.2,71,0.00,,,0.00,WUHU216HW,2013-03-01 16:25:00,
2013-03-01 09:26:00,37.3,28.8,30.07,North,0,2.0,6.5,71,0.00,,,0.00,WUHU216HW,2013-03-01 16:26:00,
2013-03-01 09:27:00,37.3,28.8,30.08,NW,315,4.0,6.3,71,0.00,,,0.00,WUHU216HW,2013-03-01 16:27:00,
2013-03-01 09:28:00,37.3,28.8,30.08,NW,315,5.4,6.3,71,0.00,,,0.00,WUHU216HW,2013-03-01 16:28:00,
2013-03-01 09:30:00,37.3,28.8,30.08,West,270,4.7,6.3,71,0.00,,,0.00,WUHU216HW,2013-03-01 16:30:00,
2013-03-01 09:32:00,37.3,28.8,30.08,West,270,3.6,6.3,71,0.00,,,0.00,WUHU216HW,2013-03-01 16:32:00,
2013-03-01 09:33:00,37.3,28.8,30.07,WNW,293,3.4,6.3,71,0.00,,,0.00,WUHU216HW,2013-03-01 16:33:00,
2013-03-01 09:35:00,37.3,28.8,30.07,West,270,3.4,6.0,71,0.00,,,0.00,WUHU216HW,2013-03-01 16:35:00,
2013-03-01 09:37:00,37.4,29.0,30.07,West,270,4.3,6.0,71,0.00,,,0.00,WUHU216HW,2013-03-01 16:37:00,
2013-03-01 09:38:00,37.6,29.4,30.07,West,270,4.7,6.0,72,0.00,,,0.00,WUHU216HW,2013-03-01 16:38:00,
2013-03-01 09:39:00,37.6,29.1,30.07,WSW,248,6.7,6.7,71,0.00,,,0.00,WUHU216HW,2013-03-01 16:39:00,
2013-03-01 09:41:00,37.8,29.3,30.07,WSW,248,6.9,7.4,71,0.00,,,0.00,WUHU216HW,2013-03-01 16:41:00,
2013-03-01 09:42:00,38.0,29.1,30.07,WSW,248,8.9,8.9,70,0.00,,,0.00,WUHU216HW,2013-03-01 16:42:00,
2013-03-01 09:43:00,38.2,29.3,30.07,WSW,248,7.6,8.9,70,0.00,,,0.00,WUHU216HW,2013-03-01 16:43:00,
2013-03-01 09:44:00,38.3,29.4,30.06,WSW,248,7.6,8.9,70,0.00,,,0.00,WUHU216HW,2013-03-01 16:44:00,
2013-03-01 09:46:00,38.5,29.3,30.06,West,270,6.7,8.9,69,0.00,,,0.00,WUHU216HW,2013-03-01 16:46:00,
2013-03-01 09:47:00,38.5,29.3,30.06,WSW,248,8.5,8.9,69,0.00,,,0.00,WUHU216HW,2013-03-01 16:47:00,
2013-03-01 09:48:00,38.5,29.6,30.06,WSW,248,10.7,10.7,70,0.00,,,0.00,WUHU216HW,2013-03-01 16:48:00,
2013-03-01 09:49:00,38.7,29.8,30.06,WSW,248,11.6,11.6,70,0.00,,,0.00,WUHU216HW,2013-03-01 16:49:00,
2013-03-01 09:51:00,38.7,29.3,30.06,West,270,6.7,11.6,69,0.00,,,0.00,WUHU216HW,2013-03-01 16:51:00,
2013-03-01 09:52:00,38.9,29.5,30.06,WSW,248,7.2,11.6,69,0.00,,,0.00,WUHU216HW,2013-03-01 16:52:00,
2013-03-01 09:53:00,38.9,29.9,30.06,WSW,248,7.6,11.6,70,0.00,,,0.00,WUHU216HW,2013-03-01 16:53:00,
2013-03-01 09:54:00,39.1,29.7,30.06,West,270,8.1,11.6,69,0.00,,,0.00,WUHU216HW,2013-03-01 16:54:00,
2013-03-01 09:56:00,39.4,30.1,30.06,WNW,293,6.9,11.6,69,0.00,,,0.00,WUHU216HW,2013-03-01 16:56:00,
2013-03-01 09:57:00,39.4,30.1,30.06,West,270,7.4,11.6,69,0.00,,,0.00,WUHU216HW,2013-03-01 16:57:00,
2013-03-01 09:58:00,39.8,30.4,30.06,WNW,293,6.3,11.6,69,0.00,,,0.00,WUHU216HW,2013-03-01 16:58:00,
2013-03-01 09:59:00,40.0,30.6,30.06,WSW,248,7.6,11.4,69,0.00,,,0.00,WUHU216HW,2013-03-01 16:59:00,
2013-03-01 10:01:00,40.3,30.2,30.06,WSW,248,3.4,9.2,67,0.00,,,0.00,WUHU216HW,2013-03-01 17:01:00,
2013-03-01 10:02:00,40.5,30.3,30.06,WSW,248,5.4,9.2,67,0.00,,,0.00,WUHU216HW,2013-03-01 17:02:00,
2013-03-01 10:04:00,40.7,31.0,30.07,WSW,248,0.2,9.2,68,0.00,,,0.00,WUHU216HW,2013-03-01 17:04:00,
2013-03-01 10:07:00,41.4,31.2,30.07,ESE,113,2.5,8.7,67,0.00,,,0.00,WUHU216HW,2013-03-01 17:07:00,
2013-03-01 10:09:00,41.8,31.2,30.06,East,90,6.3,8.7,66,0.00,,,0.00,WUHU216HW,2013-03-01 17:09:00,
2013-03-01 10:12:00,42.1,31.1,30.06,East,90,0.9,6.9,65,0.00,,,0.00,WUHU216HW,2013-03-01 17:12:00,
2013-03-01 10:14:00,42.1,31.1,30.07,North,0,0.9,6.9,65,0.00,,,0.00,WUHU216HW,2013-03-01 17:14:00,
2013-03-01 10:17:00,42.5,32.0,30.06,NNE,23,1.1,6.9,66,0.00,,,0.00,WUHU216HW,2013-03-01 17:17:00,
2013-03-01 10:19:00,42.8,32.2,30.06,ESE,113,1.1,6.9,66,0.00,,,0.00,WUHU216HW,2013-03-01 17:19:00,
2013-03-01 10:20:00,43.0,32.4,30.06,ESE,113,0.4,5.4,66,0.00,,,0.00,WUHU216HW,2013-03-01 17:20:00,
2013-03-01 10:22:00,43.4,32.8,30.06,SSW,203,2.2,2.2,66,0.00,,,0.00,WUHU216HW,2013-03-01 17:22:00,
2013-03-01 10:24:00,43.7,32.8,30.06,SE,135,3.1,4.0,65,0.00,,,0.00,WUHU216HW,2013-03-01 17:24:00,
2013-03-01 10:25:00,43.9,32.5,30.06,South,180,3.6,4.0,64,0.00,,,0.00,WUHU216HW,2013-03-01 17:25:00,
2013-03-01 10:27:00,44.3,32.9,30.06,SSE,158,1.8,4.0,64,0.00,,,0.00,WUHU216HW,2013-03-01 17:27:00,
2013-03-01 10:29:00,44.8,32.9,30.06,SSW,203,1.6,4.0,63,0.00,,,0.00,WUHU216HW,2013-03-01 17:29:00,
2013-03-01 10:30:00,45.0,33.1,30.06,SSW,203,0.9,4.0,63,0.00,,,0.00,WUHU216HW,2013-03-01 17:30:00,
2013-03-01 10:32:00,45.2,33.3,30.06,South,180,1.3,4.0,63,0.00,,,0.00,WUHU216HW,2013-03-01 17:32:00,
2013-03-01 10:35:00,45.7,33.4,30.06,SSE,158,2.5,3.6,62,0.00,,,0.00,WUHU216HW,2013-03-01 17:35:00,
2013-03-01 10:37:00,46.1,32.9,30.06,SW,225,3.6,4.5,60,0.00,,,0.00,WUHU216HW,2013-03-01 17:37:00,
2013-03-01 10:40:00,46.4,33.3,30.06,SE,135,2.0,4.5,60,0.00,,,0.00,WUHU216HW,2013-03-01 17:40:00,
2013-03-01 10:42:00,46.6,32.1,30.06,East,90,8.5,8.5,57,0.00,,,0.00,WUHU216HW,2013-03-01 17:42:00,
2013-03-01 10:45:00,46.1,31.1,30.06,East,90,6.3,9.4,56,0.00,,,0.00,WUHU216HW,2013-03-01 17:45:00,
2013-03-01 10:47:00,45.4,31.0,30.06,NE,45,1.8,9.4,57,0.00,,,0.00,WUHU216HW,2013-03-01 17:47:00,
2013-03-01 10:48:00,45.5,31.1,30.06,NNE,23,2.0,9.4,57,0.00,,,0.00,WUHU216HW,2013-03-01 17:48:00,
2013-03-01 10:50:00,45.5,31.1,30.06,ENE,68,1.8,9.4,57,0.00,,,0.00,WUHU216HW,2013-03-01 17:50:00,
2013-03-01 10:52:00,45.5,31.1,30.06,ENE,68,2.5,9.4,57,0.00,,,0.00,WUHU216HW,2013-03-01 17:52:00,
2013-03-01 10:53:00,45.5,31.1,30.06,NE,45,2.7,9.4,57,0.00,,,0.00,WUHU216HW,2013-03-01 17:53:00,
2013-03-01 10:55:00,45.7,31.3,30.06,East,90,3.8,5.1,57,0.00,,,0.00,WUHU216HW,2013-03-01 17:55:00,
2013-03-01 10:58:00,45.7,31.8,30.06,East,90,4.3,5.4,58,0.00,,,0.00,WUHU216HW,2013-03-01 17:58:00,
2013-03-01 11:00:00,45.9,31.5,30.06,East,90,6.9,6.9,57,0.00,,,0.00,WUHU216HW,2013-03-01 18:00:00,
2013-03-01 11:01:00,45.9,31.5,30.06,East,90,6.9,6.9,57,0.00,,,0.00,WUHU216HW,2013-03-01 18:01:00,
2013-03-01 11:03:00,46.1,31.6,30.06,East,90,7.4,8.5,57,0.00,,,0.00,WUHU216HW,2013-03-01 18:03:00,
2013-03-01 11:05:00,46.3,31.8,30.06,East,90,1.8,8.5,57,0.00,,,0.00,WUHU216HW,2013-03-01 18:05:00,
2013-03-01 11:06:00,46.1,31.6,30.06,ENE,68,0.9,8.5,57,0.00,,,0.00,WUHU216HW,2013-03-01 18:06:00,
2013-03-01 11:08:00,46.3,31.8,30.06,SE,135,3.4,8.5,57,0.00,,,0.00,WUHU216HW,2013-03-01 18:08:00,
2013-03-01 11:10:00,46.3,31.8,30.06,ESE,113,2.5,8.5,57,0.00,,,0.00,WUHU216HW,2013-03-01 18:10:00,
2013-03-01 11:11:00,46.3,31.8,30.06,ESE,113,2.5,8.5,57,0.00,,,0.00,WUHU216HW,2013-03-01 18:11:00,
2013-03-01 11:13:00,46.3,31.8,30.06,ESE,113,2.9,6.7,57,0.00,,,0.00,WUHU216HW,2013-03-01 18:13:00,
2013-03-01 11:15:00,46.4,32.0,30.05,SE,135,4.7,4.7,57,0.00,,,0.00,WUHU216HW,2013-03-01 18:15:00,
2013-03-01 11:16:00,46.4,32.0,30.05,ESE,113,4.0,4.7,57,0.00,,,0.00,WUHU216HW,2013-03-01 18:16:00,
2013-03-01 11:18:00,46.4,31.5,30.05,South,180,4.0,5.4,56,0.00,,,0.00,WUHU216HW,2013-03-01 18:18:00,
2013-03-01 11:21:00,46.4,32.0,30.06,WSW,248,3.4,5.4,57,0.00,,,0.00,WUHU216HW,2013-03-01 18:21:00,
2013-03-01 11:23:00,46.4,32.0,30.06,SSE,158,3.1,5.4,57,0.00,,,0.00,WUHU216HW,2013-03-01 18:23:00,
2013-03-01 11:26:00,46.4,32.0,30.05,SE,135,5.4,5.6,57,0.00,,,0.00,WUHU216HW,2013-03-01 18:26:00,
2013-03-01 11:28:00,46.3,31.3,30.05,SE,135,2.5,6.5,56,0.00,,,0.00,WUHU216HW,2013-03-01 18:28:00,
2013-03-01 11:31:00,45.9,31.5,30.05,SE,135,2.5,6.5,57,0.00,,,0.00,WUHU216HW,2013-03-01 18:31:00,
2013-03-01 11:33:00,45.7,31.3,30.05,ESE,113,4.7,6.5,57,0.00,,,0.00,WUHU216HW,2013-03-01 18:33:00,
2013-03-01 11:34:00,45.7,31.3,30.05,SE,135,4.0,6.5,57,0.00,,,0.00,WUHU216HW,2013-03-01 18:34:00,
2013-03-01 11:36:00,45.5,31.1,30.05,SE,135,3.4,6.5,57,0.00,,,0.00,WUHU216HW,2013-03-01 18:36:00,
2013-03-01 11:38:00,45.2,30.8,30.05,SE,135,4.9,4.9,57,0.00,,,0.00,WUHU216HW,2013-03-01 18:38:00,
2013-03-01 11:39:00,45.2,30.8,30.05,SE,135,4.3,4.9,57,0.00,,,0.00,WUHU216HW,2013-03-01 18:39:00,
2013-03-01 11:41:00,45.0,30.7,30.05,SSE,158,2.2,4.9,57,0.00,,,0.00,WUHU216HW,2013-03-01 18:41:00,
2013-03-01 11:44:00,45.0,31.2,30.05,SE,135,0.7,4.9,58,0.00,,,0.00,WUHU216HW,2013-03-01 18:44:00,
2013-03-01 11:45:00,45.2,31.2,30.05,SE,135,0.2,4.9,58,0.00,,,0.00,WUHU216HW,2013-03-01 18:45:00,
2013-03-01 11:46:00,45.2,31.2,30.06,SE,135,0.2,4.9,58,0.00,,,0.00,WUHU216HW,2013-03-01 18:46:00,
2013-03-01 11:49:00,45.0,30.7,30.06,NNE,23,1.1,4.3,57,0.00,,,0.00,WUHU216HW,2013-03-01 18:49:00,
2013-03-01 11:50:00,45.0,30.7,30.06,NE,45,1.1,4.0,57,0.00,,,0.00,WUHU216HW,2013-03-01 18:50:00,
2013-03-01 11:51:00,45.0,30.7,30.06,ENE,68,1.8,3.4,57,0.00,,,0.00,WUHU216HW,2013-03-01 18:51:00,
2013-03-01 11:52:00,45.0,30.7,30.06,East,90,2.2,3.4,57,0.00,,,0.00,WUHU216HW,2013-03-01 18:52:00,
2013-03-01 11:55:00,45.0,31.2,30.05,ESE,113,2.0,3.6,58,0.00,,,0.00,WUHU216HW,2013-03-01 18:55:00,
2013-03-01 11:56:00,45.0,31.2,30.05,ESE,113,1.8,3.6,58,0.00,,,0.00,WUHU216HW,2013-03-01 18:56:00,
2013-03-01 11:57:00,45.0,31.2,30.05,ESE,113,2.0,3.6,58,0.00,,,0.00,WUHU216HW,2013-03-01 18:57:00,
2013-03-01 12:00:00,45.0,31.2,30.05,ESE,113,0.0,3.6,58,0.00,,,0.00,WUHU216HW,2013-03-01 19:00:00,
2013-03-01 12:02:00,45.0,31.2,30.05,SE,135,1.8,3.6,58,0.00,,,0.00,WUHU216HW,2013-03-01 19:02:00,
2013-03-01 12:03:00,45.0,31.2,30.06,SE,135,1.3,3.6,58,0.00,,,0.00,WUHU216HW,2013-03-01 19:03:00,
2013-03-01 12:05:00,45.2,31.2,30.06,SE,135,1.1,2.2,58,0.00,,,0.00,WUHU216HW,2013-03-01 19:05:00,
2013-03-01 12:07:00,45.2,31.2,30.06,East,90,2.9,2.9,58,0.00,,,0.00,WUHU216HW,2013-03-01 19:07:00,
2013-03-01 12:08:00,45.2,31.2,30.06,East,90,2.9,2.9,58,0.00,,,0.00,WUHU216HW,2013-03-01 19:08:00,
2013-03-01 12:10:00,45.0,31.2,30.06,ENE,68,3.4,3.6,58,0.00,,,0.00,WUHU216HW,2013-03-01 19:10:00,
2013-03-01 12:12:00,44.6,30.8,30.06,East,90,2.5,3.6,58,0.00,,,0.00,WUHU216HW,2013-03-01 19:12:00,
2013-03-01 12:13:00,44.6,30.8,30.06,East,90,3.1,3.6,58,0.00,,,0.00,WUHU216HW,2013-03-01 19:13:00,
2013-03-01 12:15:00,44.6,31.2,30.06,SE,135,4.3,4.3,59,0.00,,,0.00,WUHU216HW,2013-03-01 19:15:00,
2013-03-01 12:16:00,44.5,31.1,30.05,ESE,113,4.7,4.7,59,0.00,,,0.00,WUHU216HW,2013-03-01 19:16:00,
2013-03-01 12:17:00,44.5,31.1,30.05,ESE,113,2.7,4.9,59,0.00,,,0.00,WUHU216HW,2013-03-01 19:17:00,
2013-03-01 12:18:00,44.5,31.1,30.06,East,90,2.7,4.9,59,0.00,,,0.00,WUHU216HW,2013-03-01 19:18:00,
2013-03-01 12:20:00,44.3,30.9,30.06,ESE,113,2.5,4.9,59,0.00,,,0.00,WUHU216HW,2013-03-01 19:20:00,
2013-03-01 12:21:00,44.3,30.9,30.05,ENE,68,2.9,4.9,59,0.00,,,0.00,WUHU216HW,2013-03-01 19:21:00,
2013-03-01 12:22:00,44.3,30.9,30.05,NE,45,4.0,4.9,59,0.00,,,0.00,WUHU216HW,2013-03-01 19:22:00,
2013-03-01 12:23:00,44.1,30.7,30.05,NE,45,3.6,4.9,59,0.00,,,0.00,WUHU216HW,2013-03-01 19:23:00,
2013-03-01 12:25:00,43.9,30.5,30.05,NE,45,1.6,4.9,59,0.00,,,0.00,WUHU216HW,2013-03-01 19:25:00,
2013-03-01 12:26:00,43.9,30.5,30.05,NE,45,1.8,4.9,59,0.00,,,0.00,WUHU216HW,2013-03-01 19:26:00,
2013-03-01 12:27:00,43.9,30.5,30.05,NNE,23,1.8,4.0,59,0.00,,,0.00,WUHU216HW,2013-03-01 19:27:00,
2013-03-01 12:28:00,43.7,30.3,30.05,NNW,338,2.5,4.0,59,0.00,,,0.00,WUHU216HW,2013-03-01 19:28:00,
2013-03-01 12:30:00,43.7,30.3,30.06,NW,315,3.4,4.0,59,0.00,,,0.00,WUHU216HW,2013-03-01 19:30:00,
2013-03-01 12:31:00,43.6,30.6,30.06,NW,315,4.0,4.0,60,0.00,,,0.00,WUHU216HW,2013-03-01 19:31:00,
2013-03-01 12:32:00,43.6,30.6,30.06,NNW,338,3.4,4.0,60,0.00,,,0.00,WUHU216HW,2013-03-01 19:32:00,
2013-03-01 12:33:00,43.6,30.6,30.06,NNW,338,2.7,4.0,60,0.00,,,0.00,WUHU216HW,2013-03-01 19:33:00,
2013-03-01 12:35:00,43.4,30.4,30.05,WSW,248,1.3,4.0,60,0.00,,,0.00,WUHU216HW,2013-03-01 19:35:00,
2013-03-01 12:36:00,43.4,30.4,30.05,WSW,248,4.0,4.0,60,0.00,,,0.00,WUHU216HW,2013-03-01 19:36:00,
2013-03-01 12:37:00,43.4,30.8,30.06,West,270,4.3,5.1,61,0.00,,,0.00,WUHU216HW,2013-03-01 19:37:00,
2013-03-01 12:38:00,43.4,30.4,30.06,West,270,4.0,5.1,60,0.00,,,0.00,WUHU216HW,2013-03-01 19:38:00,
2013-03-01 12:40:00,43.2,30.2,30.06,WNW,293,1.1,5.1,60,0.00,,,0.00,WUHU216HW,2013-03-01 19:40:00,
2013-03-01 12:41:00,43.2,30.2,30.05,NW,315,0.0,5.1,60,0.00,,,0.00,WUHU216HW,2013-03-01 19:41:00,
2013-03-01 12:42:00,43.2,30.2,30.05,ESE,113,3.4,5.1,60,0.00,,,0.00,WUHU216HW,2013-03-01 19:42:00,
2013-03-01 12:43:00,43.2,30.2,30.05,ESE,113,5.6,5.6,60,0.00,,,0.00,WUHU216HW,2013-03-01 19:43:00,
2013-03-01 12:45:00,43.6,31.0,30.04,SSE,158,6.0,6.7,61,0.00,,,0.00,WUHU216HW,2013-03-01 19:45:00,
2013-03-01 12:47:00,43.6,31.0,30.05,South,180,6.0,6.9,61,0.00,,,0.00,WUHU216HW,2013-03-01 19:47:00,
2013-03-01 12:49:00,43.7,31.1,30.05,SSW,203,6.3,6.9,61,0.00,,,0.00,WUHU216HW,2013-03-01 19:49:00,
2013-03-01 12:50:00,43.7,31.1,30.05,South,180,7.6,7.6,61,0.00,,,0.00,WUHU216HW,2013-03-01 19:50:00,
2013-03-01 12:53:00,43.9,31.0,30.05,SSE,158,7.8,7.8,60,0.00,,,0.00,WUHU216HW,2013-03-01 19:53:00,
2013-03-01 12:54:00,43.9,31.0,30.05,SE,135,6.3,9.2,60,0.00,,,0.00,WUHU216HW,2013-03-01 19:54:00,
2013-03-01 12:55:00,44.1,31.1,30.05,South,180,8.7,9.8,60,0.00,,,0.00,WUHU216HW,2013-03-01 19:55:00,
2013-03-01 12:58:00,44.3,31.3,30.05,SSE,158,4.7,9.8,60,0.00,,,0.00,WUHU216HW,2013-03-01 19:58:00,
2013-03-01 13:00:00,44.3,31.3,30.05,SSE,158,6.9,9.8,60,0.00,,,0.00,WUHU216HW,2013-03-01 20:00:00,
2013-03-01 13:03:00,44.5,31.5,30.05,SSE,158,8.9,9.8,60,0.00,,,0.00,WUHU216HW,2013-03-01 20:03:00,
2013-03-01 13:04:00,44.6,31.7,30.05,SSE,158,8.5,9.8,60,0.00,,,0.00,WUHU216HW,2013-03-01 20:04:00,
2013-03-01 13:06:00,44.6,31.2,30.05,SE,135,10.3,11.0,59,0.00,,,0.00,WUHU216HW,2013-03-01 20:06:00,
2013-03-01 13:08:00,44.8,31.4,30.05,SSE,158,8.7,11.2,59,0.00,,,0.00,WUHU216HW,2013-03-01 20:08:00,
2013-03-01 13:09:00,44.8,31.4,30.05,SSE,158,8.5,11.2,59,0.00,,,0.00,WUHU216HW,2013-03-01 20:09:00,
2013-03-01 13:11:00,45.0,31.6,30.05,SSE,158,4.9,11.2,59,0.00,,,0.00,WUHU216HW,2013-03-01 20:11:00,
2013-03-01 13:13:00,45.0,31.2,30.06,NNW,338,4.7,11.2,58,0.00,,,0.00,WUHU216HW,2013-03-01 20:13:00,
2013-03-01 13:14:00,45.0,31.6,30.05,NNW,338,5.8,11.2,59,0.00,,,0.00,WUHU216HW,2013-03-01 20:14:00,
2013-03-01 13:16:00,44.8,31.4,30.05,NNW,338,5.1,11.2,59,0.00,,,0.00,WUHU216HW,2013-03-01 20:16:00,
2013-03-01 13:18:00,44.6,31.2,30.05,NW,315,2.9,9.6,59,0.00,,,0.00,WUHU216HW,2013-03-01 20:18:00,
2013-03-01 13:19:00,44.6,31.2,30.05,WNW,293,3.8,9.6,59,0.00,,,0.00,WUHU216HW,2013-03-01 20:19:00,
2013-03-01 13:21:00,44.6,30.8,30.06,West,270,4.7,6.3,58,0.00,,,0.00,WUHU216HW,2013-03-01 20:21:00,
2013-03-01 13:23:00,44.6,30.8,30.06,WSW,248,2.7,6.3,58,0.00,,,0.00,WUHU216HW,2013-03-01 20:23:00,
2013-03-01 13:24:00,44.6,30.8,30.06,SE,135,1.1,6.3,58,0.00,,,0.00,WUHU216HW,2013-03-01 20:24:00,
2013-03-01 13:26:00,44.8,31.0,30.06,South,180,0.2,6.3,58,0.00,,,0.00,WUHU216HW,2013-03-01 20:26:00,
2013-03-01 13:28:00,45.0,31.2,30.05,WSW,248,2.5,6.3,58,0.00,,,0.00,WUHU216HW,2013-03-01 20:28:00,
2013-03-01 13:29:00,45.0,31.2,30.05,WSW,248,2.5,6.3,58,0.00,,,0.00,WUHU216HW,2013-03-01 20:29:00,
2013-03-01 13:31:00,45.2,31.2,30.05,SE,135,1.3,6.3,58,0.00,,,0.00,WUHU216HW,2013-03-01 20:31:00,
2013-03-01 13:33:00,45.5,31.6,30.05,West,270,2.0,2.7,58,0.00,,,0.00,WUHU216HW,2013-03-01 20:33:00,
2013-03-01 13:34:00,45.5,31.6,30.05,West,270,2.0,2.7,58,0.00,,,0.00,WUHU216HW,2013-03-01 20:34:00,
2013-03-01 13:35:00,45.5,31.6,30.05,West,270,1.8,2.7,58,0.00,,,0.00,WUHU216HW,2013-03-01 20:35:00,
2013-03-01 13:36:00,45.7,31.8,30.05,SW,225,1.3,2.7,58,0.00,,,0.00,WUHU216HW,2013-03-01 20:36:00,
2013-03-01 13:39:00,45.7,31.8,30.05,WSW,248,1.8,2.7,58,0.00,,,0.00,WUHU216HW,2013-03-01 20:39:00,
2013-03-01 13:40:00,45.7,31.8,30.05,SW,225,4.0,4.0,58,0.00,,,0.00,WUHU216HW,2013-03-01 20:40:00,
2013-03-01 13:41:00,45.9,32.0,30.05,South,180,6.3,6.3,58,0.00,,,0.00,WUHU216HW,2013-03-01 20:41:00,
2013-03-01 13:44:00,46.1,31.6,30.04,SSE,158,12.8,13.2,57,0.00,,,0.00,WUHU216HW,2013-03-01 20:44:00,
2013-03-01 13:46:00,46.1,31.6,30.04,SE,135,9.6,13.2,57,0.00,,,0.00,WUHU216HW,2013-03-01 20:46:00,
2013-03-01 13:49:00,46.3,31.8,30.03,SSE,158,13.0,15.9,57,0.00,,,0.00,WUHU216HW,2013-03-01 20:49:00,
2013-03-01 13:50:00,46.3,31.8,30.03,SSE,158,11.0,15.9,57,0.00,,,0.00,WUHU216HW,2013-03-01 20:50:00,
2013-03-01 13:51:00,46.3,31.8,30.03,SE,135,7.6,15.9,57,0.00,,,0.00,WUHU216HW,2013-03-01 20:51:00,
2013-03-01 13:54:00,46.4,32.0,30.04,SE,135,6.3,15.9,57,0.00,,,0.00,WUHU216HW,2013-03-01 20:54:00,
2013-03-01 13:55:00,46.4,32.0,30.04,SE,135,8.5,15.9,57,0.00,,,0.00,WUHU216HW,2013-03-01 20:55:00,
2013-03-01 13:56:00,46.4,32.0,30.04,SSE,158,4.5,15.9,57,0.00,,,0.00,WUHU216HW,2013-03-01 20:56:00,
2013-03-01 13:59:00,46.4,32.0,30.05,WNW,293,4.0,11.0,57,0.00,,,0.00,WUHU216HW,2013-03-01 20:59:00,
2013-03-01 14:00:00,46.4,32.0,30.05,NW,315,5.1,9.6,57,0.00,,,0.00,WUHU216HW,2013-03-01 21:00:00,
2013-03-01 14:01:00,46.3,31.8,30.05,West,270,7.6,9.6,57,0.00,,,0.00,WUHU216HW,2013-03-01 21:01:00,
2013-03-01 14:02:00,46.4,32.0,30.05,NW,315,10.1,10.1,57,0.00,,,0.00,WUHU216HW,2013-03-01 21:02:00,
2013-03-01 14:04:00,46.4,31.5,30.05,SSW,203,5.1,10.1,56,0.00,,,0.00,WUHU216HW,2013-03-01 21:04:00,
2013-03-01 14:05:00,46.4,32.0,30.05,SSW,203,3.1,10.1,57,0.00,,,0.00,WUHU216HW,2013-03-01 21:05:00,
2013-03-01 14:06:00,46.4,32.0,30.05,South,180,3.8,10.1,57,0.00,,,0.00,WUHU216HW,2013-03-01 21:06:00,
2013-03-01 14:07:00,46.6,32.1,30.05,South,180,2.5,10.1,57,0.00,,,0.00,WUHU216HW,2013-03-01 21:07:00,
2013-03-01 14:10:00,46.8,31.9,30.05,SE,135,1.1,10.1,56,0.00,,,0.00,WUHU216HW,2013-03-01 21:10:00,
2013-03-01 14:11:00,47.2,32.2,30.05,South,180,5.1,10.1,56,0.00,,,0.00,WUHU216HW,2013-03-01 21:11:00,
2013-03-01 14:12:00,47.2,32.2,30.05,South,180,4.5,6.7,56,0.00,,,0.00,WUHU216HW,2013-03-01 21:12:00,
2013-03-01 14:15:00,47.3,32.4,30.05,WSW,248,0.9,6.7,56,0.00,,,0.00,WUHU216HW,2013-03-01 21:15:00,
2013-03-01 14:16:00,47.5,32.6,30.05,SSE,158,3.6,6.7,56,0.00,,,0.00,WUHU216HW,2013-03-01 21:16:00,
2013-03-01 14:17:00,47.5,32.6,30.05,SSE,158,4.7,6.7,56,0.00,,,0.00,WUHU216HW,2013-03-01 21:17:00,
2013-03-01 14:20:00,47.9,32.4,30.05,SE,135,4.0,8.7,55,0.00,,,0.00,WUHU216HW,2013-03-01 21:20:00,
2013-03-01 14:21:00,48.1,32.6,30.05,ESE,113,6.7,8.7,55,0.00,,,0.00,WUHU216HW,2013-03-01 21:21:00,
2013-03-01 14:22:00,47.9,32.4,30.05,ESE,113,4.5,8.7,55,0.00,,,0.00,WUHU216HW,2013-03-01 21:22:00,
2013-03-01 14:25:00,48.2,32.3,30.05,SE,135,8.3,8.7,54,0.00,,,0.00,WUHU216HW,2013-03-01 21:25:00,
2013-03-01 14:26:00,48.2,32.3,30.05,ESE,113,8.5,9.4,54,0.00,,,0.00,WUHU216HW,2013-03-01 21:26:00,
2013-03-01 14:27:00,48.4,32.5,30.04,ESE,113,9.2,9.6,54,0.00,,,0.00,WUHU216HW,2013-03-01 21:27:00,
2013-03-01 14:30:00,48.4,32.5,30.04,East,90,7.4,9.6,54,0.00,,,0.00,WUHU216HW,2013-03-01 21:30:00,
2013-03-01 14:31:00,48.2,32.3,30.04,ESE,113,8.5,9.6,54,0.00,,,0.00,WUHU216HW,2013-03-01 21:31:00,
2013-03-01 14:32:00,48.2,31.9,30.04,SE,135,10.5,10.5,53,0.00,,,0.00,WUHU216HW,2013-03-01 21:32:00,
2013-03-01 14:35:00,48.2,31.9,30.04,ESE,113,9.2,10.5,53,0.00,,,0.00,WUHU216HW,2013-03-01 21:35:00,
2013-03-01 14:36:00,48.4,32.1,30.04,ESE,113,6.9,10.5,53,0.00,,,0.00,WUHU216HW,2013-03-01 21:36:00,
2013-03-01 14:38:00,48.4,32.1,30.04,ESE,113,8.5,10.5,53,0.00,,,0.00,WUHU216HW,2013-03-01 21:38:00,
2013-03-01 14:40:00,48.8,32.9,30.04,East,90,7.6,10.5,54,0.00,,,0.00,WUHU216HW,2013-03-01 21:40:00,
2013-03-01 14:41:00,49.0,32.5,30.04,SE,135,8.9,10.5,53,0.00,,,0.00,WUHU216HW,2013-03-01 21:41:00,
2013-03-01 14:43:00,49.3,32.9,30.04,SSE,158,6.5,9.8,53,0.00,,,0.00,WUHU216HW,2013-03-01 21:43:00,
2013-03-01 14:45:00,50.0,33.1,30.04,ESE,113,7.4,9.8,52,0.00,,,0.00,WUHU216HW,2013-03-01 21:45:00,
2013-03-01 14:46:00,50.2,33.3,30.04,SE,135,6.7,9.8,52,0.00,,,0.00,WUHU216HW,2013-03-01 21:46:00,
2013-03-01 14:47:00,50.6,33.6,30.04,SE,135,5.1,9.8,52,0.00,,,0.00,WUHU216HW,2013-03-01 21:47:00,
2013-03-01 14:48:00,50.8,32.9,30.04,SE,135,8.3,9.8,50,0.00,,,0.00,WUHU216HW,2013-03-01 21:48:00,
2013-03-01 14:50:00,51.1,32.7,30.04,WNW,293,0.9,9.8,49,0.00,,,0.00,WUHU216HW,2013-03-01 21:50:00,
2013-03-01 14:51:00,51.3,32.8,30.04,East,90,6.3,9.8,49,0.00,,,0.00,WUHU216HW,2013-03-01 21:51:00,
2013-03-01 14:52:00,51.5,32.9,30.04,SE,135,4.9,9.8,49,0.00,,,0.00,WUHU216HW,2013-03-01 21:52:00,
2013-03-01 14:53:00,51.5,32.9,30.04,SSE,158,7.8,9.4,49,0.00,,,0.00,WUHU216HW,2013-03-01 21:53:00,
2013-03-01 14:55:00,51.8,32.8,30.04,SSW,203,8.5,9.6,48,0.00,,,0.00,WUHU216HW,2013-03-01 21:55:00,
2013-03-01 14:56:00,51.8,32.8,30.04,SSW,203,8.5,9.6,48,0.00,,,0.00,WUHU216HW,2013-03-01 21:56:00,
2013-03-01 14:57:00,52.0,32.9,30.03,South,180,11.6,11.6,48,0.00,,,0.00,WUHU216HW,2013-03-01 21:57:00,
2013-03-01 14:58:00,52.0,32.3,30.03,SE,135,7.8,12.8,47,0.00,,,0.00,WUHU216HW,2013-03-01 21:58:00,
2013-03-01 15:01:00,51.8,32.8,30.04,SSE,158,7.8,12.8,48,0.00,,,0.00,WUHU216HW,2013-03-01 22:01:00,
2013-03-01 15:02:00,51.7,32.6,30.04,SSE,158,9.2,12.8,48,0.00,,,0.00,WUHU216HW,2013-03-01 22:02:00,
2013-03-01 15:03:00,51.7,32.6,30.04,SSE,158,7.6,12.8,48,0.00,,,0.00,WUHU216HW,2013-03-01 22:03:00,
2013-03-01 15:06:00,51.7,32.6,30.04,SE,135,6.5,12.8,48,0.00,,,0.00,WUHU216HW,2013-03-01 22:06:00,
2013-03-01 15:07:00,51.5,31.9,30.04,SE,135,8.3,12.8,47,0.00,,,0.00,WUHU216HW,2013-03-01 22:07:00,
2013-03-01 15:08:00,51.5,32.4,30.04,SE,135,10.3,12.1,48,0.00,,,0.00,WUHU216HW,2013-03-01 22:08:00,
2013-03-01 15:11:00,51.5,32.4,30.05,SE,135,8.7,11.4,48,0.00,,,0.00,WUHU216HW,2013-03-01 22:11:00,
2013-03-01 15:12:00,51.5,31.9,30.05,SE,135,9.8,11.4,47,0.00,,,0.00,WUHU216HW,2013-03-01 22:12:00,
2013-03-01 15:13:00,51.3,31.7,30.04,SSE,158,10.5,11.4,47,0.00,,,0.00,WUHU216HW,2013-03-01 22:13:00,
2013-03-01 15:16:00,51.1,32.0,30.04,SSW,203,8.1,11.4,48,0.00,,,0.00,WUHU216HW,2013-03-01 22:16:00,
2013-03-01 15:17:00,51.1,32.0,30.04,SSE,158,9.4,11.4,48,0.00,,,0.00,WUHU216HW,2013-03-01 22:17:00,
2013-03-01 15:18:00,51.1,32.0,30.04,SSE,158,7.4,10.5,48,0.00,,,0.00,WUHU216HW,2013-03-01 22:18:00,
2013-03-01 15:21:00,51.1,32.0,30.04,South,180,8.7,10.7,48,0.00,,,0.00,WUHU216HW,2013-03-01 22:21:00,
2013-03-01 15:22:00,50.9,32.0,30.05,SSE,158,8.1,10.7,48,0.00,,,0.00,WUHU216HW,2013-03-01 22:22:00,
2013-03-01 15:23:00,50.9,32.5,30.05,SE,135,6.7,10.7,49,0.00,,,0.00,WUHU216HW,2013-03-01 22:23:00,
2013-03-01 15:26:00,50.9,32.5,30.04,SSE,158,5.1,10.7,49,0.00,,,0.00,WUHU216HW,2013-03-01 22:26:00,
2013-03-01 15:27:00,50.9,32.5,30.05,SSE,158,8.3,10.7,49,0.00,,,0.00,WUHU216HW,2013-03-01 22:27:00,
2013-03-01 15:28:00,50.9,32.5,30.05,South,180,7.6,10.7,49,0.00,,,0.00,WUHU216HW,2013-03-01 22:28:00,
2013-03-01 15:31:00,50.9,32.5,30.05,SSE,158,6.7,8.7,49,0.00,,,0.00,WUHU216HW,2013-03-01 22:31:00,
2013-03-01 15:32:00,50.9,32.5,30.05,SE,135,5.4,8.3,49,0.00,,,0.00,WUHU216HW,2013-03-01 22:32:00,
2013-03-01 15:33:00,50.9,32.5,30.05,SSE,158,5.6,8.3,49,0.00,,,0.00,WUHU216HW,2013-03-01 22:33:00,
2013-03-01 15:36:00,51.1,32.7,30.05,SE,135,6.3,8.3,49,0.00,,,0.00,WUHU216HW,2013-03-01 22:36:00,
2013-03-01 15:37:00,51.1,32.7,30.05,SSE,158,8.3,9.2,49,0.00,,,0.00,WUHU216HW,2013-03-01 22:37:00,
2013-03-01 15:39:00,51.1,32.7,30.05,SE,135,6.9,9.2,49,0.00,,,0.00,WUHU216HW,2013-03-01 22:39:00,
2013-03-01 15:41:00,51.1,32.0,30.05,South,180,8.1,9.2,48,0.00,,,0.00,WUHU216HW,2013-03-01 22:41:00,
2013-03-01 15:42:00,51.1,32.0,30.05,SSE,158,8.5,9.2,48,0.00,,,0.00,WUHU216HW,2013-03-01 22:42:00,
2013-03-01 15:43:00,51.1,32.0,30.05,SSE,158,8.7,9.2,48,0.00,,,0.00,WUHU216HW,2013-03-01 22:43:00,
2013-03-01 15:44:00,50.9,32.0,30.05,SSE,158,5.8,9.2,48,0.00,,,0.00,WUHU216HW,2013-03-01 22:44:00,
2013-03-01 15:46:00,50.9,32.0,30.05,SSE,158,5.4,9.2,48,0.00,,,0.00,WUHU216HW,2013-03-01 22:46:00,
2013-03-01 15:47:00,50.8,31.8,30.05,SSE,158,5.4,9.2,48,0.00,,,0.00,WUHU216HW,2013-03-01 22:47:00,
2013-03-01 15:48:00,50.9,32.5,30.05,SSE,158,5.6,9.2,49,0.00,,,0.00,WUHU216HW,2013-03-01 22:48:00,
2013-03-01 15:49:00,50.8,31.8,30.05,SSE,158,8.1,9.2,48,0.00,,,0.00,WUHU216HW,2013-03-01 22:49:00,
2013-03-01 15:51:00,50.9,32.5,30.05,SE,135,6.5,9.6,49,0.00,,,0.00,WUHU216HW,2013-03-01 22:51:00,
2013-03-01 15:52:00,50.9,32.0,30.05,SE,135,6.7,9.6,48,0.00,,,0.00,WUHU216HW,2013-03-01 22:52:00,
2013-03-01 15:53:00,50.9,32.5,30.05,SE,135,8.5,9.6,49,0.00,,,0.00,WUHU216HW,2013-03-01 22:53:00,
2013-03-01 15:54:00,50.9,32.5,30.05,South,180,6.9,9.6,49,0.00,,,0.00,WUHU216HW,2013-03-01 22:54:00,
2013-03-01 15:56:00,50.9,32.5,30.05,SSE,158,5.1,9.6,49,0.00,,,0.00,WUHU216HW,2013-03-01 22:56:00,
2013-03-01 15:57:00,50.9,32.5,30.05,South,180,6.0,9.6,49,0.00,,,0.00,WUHU216HW,2013-03-01 22:57:00,
2013-03-01 15:58:00,50.8,32.3,30.05,SSE,158,4.0,9.6,49,0.00,,,0.00,WUHU216HW,2013-03-01 22:58:00,
2013-03-01 15:59:00,50.9,32.5,30.05,SSE,158,4.0,9.6,49,0.00,,,0.00,WUHU216HW,2013-03-01 22:59:00,
2013-03-01 16:01:00,50.9,32.0,30.05,South,180,6.9,9.2,48,0.00,,,0.00,WUHU216HW,2013-03-01 23:01:00,
2013-03-01 16:02:00,50.8,32.3,30.05,SSE,158,5.4,9.2,49,0.00,,,0.00,WUHU216HW,2013-03-01 23:02:00,
2013-03-01 16:03:00,50.8,31.8,30.05,South,180,6.3,8.5,48,0.00,,,0.00,WUHU216HW,2013-03-01 23:03:00,
2013-03-01 16:04:00,50.8,32.3,30.05,SSW,203,6.3,8.5,49,0.00,,,0.00,WUHU216HW,2013-03-01 23:04:00,
2013-03-01 16:07:00,50.8,32.3,30.05,South,180,6.5,8.5,49,0.00,,,0.00,WUHU216HW,2013-03-01 23:07:00,
2013-03-01 16:08:00,50.8,32.3,30.05,South,180,5.6,8.5,49,0.00,,,0.00,WUHU216HW,2013-03-01 23:08:00,
2013-03-01 16:09:00,50.8,32.3,30.04,SSW,203,3.1,8.5,49,0.00,,,0.00,WUHU216HW,2013-03-01 23:09:00,
2013-03-01 16:12:00,50.8,32.3,30.04,SE,135,2.2,7.6,49,0.00,,,0.00,WUHU216HW,2013-03-01 23:12:00,
2013-03-01 16:14:00,50.8,32.3,30.04,SE,135,4.9,6.9,49,0.00,,,0.00,WUHU216HW,2013-03-01 23:14:00,
2013-03-01 16:15:00,50.9,32.5,30.04,South,180,5.8,6.9,49,0.00,,,0.00,WUHU216HW,2013-03-01 23:15:00,
2013-03-01 16:17:00,50.9,32.5,30.05,SSE,158,3.8,6.5,49,0.00,,,0.00,WUHU216HW,2013-03-01 23:17:00,
2013-03-01 16:18:00,50.9,32.5,30.05,SSE,158,3.4,6.5,49,0.00,,,0.00,WUHU216HW,2013-03-01 23:18:00,
2013-03-01 16:19:00,50.9,32.5,30.04,SE,135,2.7,5.8,49,0.00,,,0.00,WUHU216HW,2013-03-01 23:19:00,
2013-03-01 16:20:00,50.9,32.5,30.04,ESE,113,1.8,5.8,49,0.00,,,0.00,WUHU216HW,2013-03-01 23:20:00,
2013-03-01 16:22:00,50.9,32.5,30.04,SE,135,1.3,5.8,49,0.00,,,0.00,WUHU216HW,2013-03-01 23:22:00,
2013-03-01 16:23:00,50.8,32.3,30.05,SE,135,1.1,5.8,49,0.00,,,0.00,WUHU216HW,2013-03-01 23:23:00,
2013-03-01 16:24:00,50.8,32.3,30.04,South,180,3.4,5.8,49,0.00,,,0.00,WUHU216HW,2013-03-01 23:24:00,
2013-03-01 16:25:00,50.8,32.3,30.05,South,180,5.1,5.1,49,0.00,,,0.00,WUHU216HW,2013-03-01 23:25:00,
2013-03-01 16:27:00,50.8,32.3,30.05,SE,135,6.9,7.8,49,0.00,,,0.00,WUHU216HW,2013-03-01 23:27:00,
2013-03-01 16:28:00,50.8,31.8,30.05,SE,135,6.3,7.8,48,0.00,,,0.00,WUHU216HW,2013-03-01 23:28:00,
2013-03-01 16:29:00,50.6,31.6,30.05,SE,135,4.0,7.8,48,0.00,,,0.00,WUHU216HW,2013-03-01 23:29:00,
2013-03-01 16:30:00,50.6,32.1,30.05,SSE,158,6.3,7.8,49,0.00,,,0.00,WUHU216HW,2013-03-01 23:30:00,
2013-03-01 16:32:00,50.6,32.1,30.05,SSE,158,4.7,7.8,49,0.00,,,0.00,WUHU216HW,2013-03-01 23:32:00,
2013-03-01 16:33:00,50.4,31.4,30.05,SSE,158,7.6,7.8,48,0.00,,,0.00,WUHU216HW,2013-03-01 23:33:00,
2013-03-01 16:34:00,50.4,31.4,30.05,SSE,158,8.1,8.1,48,0.00,,,0.00,WUHU216HW,2013-03-01 23:34:00,
2013-03-01 16:36:00,50.2,31.2,30.05,SSE,158,4.9,8.1,48,0.00,,,0.00,WUHU216HW,2013-03-01 23:36:00,
2013-03-01 16:38:00,50.2,31.9,30.05,SSE,158,3.1,8.1,49,0.00,,,0.00,WUHU216HW,2013-03-01 23:38:00,
2013-03-01 16:39:00,50.2,31.9,30.05,ESE,113,0.9,8.1,49,0.00,,,0.00,WUHU216HW,2013-03-01 23:39:00,
2013-03-01 16:41:00,50.2,31.9,30.05,SE,135,4.0,8.1,49,0.00,,,0.00,WUHU216HW,2013-03-01 23:41:00,
2013-03-01 16:43:00,50.2,31.9,30.05,SE,135,3.1,8.1,49,0.00,,,0.00,WUHU216HW,2013-03-01 23:43:00,
2013-03-01 16:44:00,50.0,31.7,30.05,ESE,113,1.8,8.1,49,0.00,,,0.00,WUHU216HW,2013-03-01 23:44:00,
2013-03-01 16:45:00,50.0,31.7,30.05,SE,135,4.9,7.4,49,0.00,,,0.00,WUHU216HW,2013-03-01 23:45:00,
2013-03-01 16:46:00,50.0,31.7,30.05,SE,135,6.0,6.5,49,0.00,,,0.00,WUHU216HW,2013-03-01 23:46:00,
2013-03-01 16:48:00,50.0,31.7,30.05,SE,135,6.3,7.6,49,0.00,,,0.00,WUHU216HW,2013-03-01 23:48:00,
2013-03-01 16:49:00,49.9,31.5,30.05,SE,135,5.1,7.6,49,0.00,,,0.00,WUHU216HW,2013-03-01 23:49:00,
2013-03-01 16:50:00,49.7,31.3,30.05,SE,135,6.5,7.6,49,0.00,,,0.00,WUHU216HW,2013-03-01 23:50:00,
2013-03-01 16:51:00,49.7,31.3,30.05,SE,135,3.6,7.6,49,0.00,,,0.00,WUHU216HW,2013-03-01 23:51:00,
2013-03-01 16:53:00,49.5,31.2,30.05,SE,135,2.7,7.6,49,0.00,,,0.00,WUHU216HW,2013-03-01 23:53:00,
2013-03-01 16:54:00,49.5,31.2,30.05,SE,135,4.0,7.6,49,0.00,,,0.00,WUHU216HW,2013-03-01 23:54:00,
2013-03-01 16:55:00,49.5,31.7,30.05,SE,135,4.9,7.6,50,0.00,,,0.00,WUHU216HW,2013-03-01 23:55:00,
2013-03-01 16:56:00,49.3,31.5,30.05,SSE,158,4.0,7.6,50,0.00,,,0.00,WUHU216HW,2013-03-01 23:56:00,
2013-03-01 16:59:00,49.3,31.5,30.05,South,180,4.0,6.9,50,0.00,,,0.00,WUHU216HW,2013-03-01 23:59:00,
2013-03-01 17:00:00,49.1,31.3,30.05,South,180,3.4,6.3,50,0.00,,,0.00,WUHU216HW,2013-03-02 00:00:00,
2013-03-01 17:01:00,49.1,31.3,30.05,SSW,203,4.0,5.4,50,0.00,,,0.00,WUHU216HW,2013-03-02 00:01:00,
2013-03-01 17:03:00,49.0,31.6,30.05,South,180,4.0,5.4,51,0.00,,,0.00,WUHU216HW,2013-03-02 00:03:00,
2013-03-01 17:04:00,49.0,31.6,30.05,South,180,4.7,5.4,51,0.00,,,0.00,WUHU216HW,2013-03-02 00:04:00,
2013-03-01 17:05:00,48.8,31.4,30.04,South,180,4.7,4.7,51,0.00,,,0.00,WUHU216HW,2013-03-02 00:05:00,
2013-03-01 17:07:00,48.6,31.2,30.05,SSE,158,4.7,4.7,51,0.00,,,0.00,WUHU216HW,2013-03-02 00:07:00,
2013-03-01 17:08:00,48.4,31.1,30.05,South,180,4.5,4.7,51,0.00,,,0.00,WUHU216HW,2013-03-02 00:08:00,
2013-03-01 17:10:00,48.2,30.9,30.05,SSE,158,3.4,5.1,51,0.00,,,0.00,WUHU216HW,2013-03-02 00:10:00,
2013-03-01 17:12:00,48.2,30.9,30.05,South,180,2.5,5.1,51,0.00,,,0.00,WUHU216HW,2013-03-02 00:12:00,
2013-03-01 17:14:00,48.1,31.2,30.04,SSE,158,1.8,5.1,52,0.00,,,0.00,WUHU216HW,2013-03-02 00:14:00,
2013-03-01 17:15:00,48.1,31.2,30.04,SSE,158,3.8,5.1,52,0.00,,,0.00,WUHU216HW,2013-03-02 00:15:00,
2013-03-01 17:17:00,47.9,31.1,30.04,SSE,158,5.4,6.3,52,0.00,,,0.00,WUHU216HW,2013-03-02 00:17:00,
2013-03-01 17:19:00,47.9,31.1,30.04,ESE,113,5.8,6.3,52,0.00,,,0.00,WUHU216HW,2013-03-02 00:19:00,
2013-03-01 17:20:00,47.7,30.9,30.04,SE,135,4.3,6.3,52,0.00,,,0.00,WUHU216HW,2013-03-02 00:20:00,
2013-03-01 17:21:00,47.7,30.9,30.04,SE,135,4.5,6.3,52,0.00,,,0.00,WUHU216HW,2013-03-02 00:21:00,
2013-03-01 17:22:00,47.5,30.7,30.04,SSW,203,1.8,6.3,52,0.00,,,0.00,WUHU216HW,2013-03-02 00:22:00,
2013-03-01 17:24:00,47.3,30.5,30.04,WSW,248,2.7,6.3,52,0.00,,,0.00,WUHU216HW,2013-03-02 00:24:00,
2013-03-01 17:25:00,47.3,30.5,30.04,SSW,203,2.0,6.3,52,0.00,,,0.00,WUHU216HW,2013-03-02 00:25:00,
2013-03-01 17:26:00,47.3,30.5,30.04,South,180,2.7,6.3,52,0.00,,,0.00,WUHU216HW,2013-03-02 00:26:00,
2013-03-01 17:27:00,47.2,30.8,30.05,ESE,113,3.4,6.3,53,0.00,,,0.00,WUHU216HW,2013-03-02 00:27:00,
2013-03-01 17:29:00,47.0,30.7,30.05,ESE,113,2.7,6.3,53,0.00,,,0.00,WUHU216HW,2013-03-02 00:29:00,
2013-03-01 17:30:00,47.0,30.7,30.05,ESE,113,2.2,6.3,53,0.00,,,0.00,WUHU216HW,2013-03-02 00:30:00,
2013-03-01 17:31:00,47.0,30.7,30.05,East,90,2.7,6.3,53,0.00,,,0.00,WUHU216HW,2013-03-02 00:31:00,
2013-03-01 17:32:00,46.8,30.5,30.05,ESE,113,4.5,4.5,53,0.00,,,0.00,WUHU216HW,2013-03-02 00:32:00,
2013-03-01 17:34:00,46.8,30.5,30.05,ESE,113,4.7,4.7,53,0.00,,,0.00,WUHU216HW,2013-03-02 00:34:00,
2013-03-01 17:35:00,46.6,30.3,30.05,ESE,113,4.5,4.9,53,0.00,,,0.00,WUHU216HW,2013-03-02 00:35:00,
2013-03-01 17:36:00,46.6,30.3,30.05,ESE,113,4.0,4.9,53,0.00,,,0.00,WUHU216HW,2013-03-02 00:36:00,
2013-03-01 17:37:00,46.4,30.2,30.05,ESE,113,5.6,5.6,53,0.00,,,0.00,WUHU216HW,2013-03-02 00:37:00,
2013-03-01 17:39:00,46.4,30.6,30.05,ESE,113,6.3,6.7,54,0.00,,,0.00,WUHU216HW,2013-03-02 00:39:00,
2013-03-01 17:40:00,46.4,30.6,30.05,ESE,113,5.4,6.7,54,0.00,,,0.00,WUHU216HW,2013-03-02 00:40:00,
2013-03-01 17:41:00,46.4,30.6,30.05,SSE,158,4.7,6.7,54,0.00,,,0.00,WUHU216HW,2013-03-02 00:41:00,
2013-03-01 17:42:00,46.4,30.6,30.05,ESE,113,3.8,6.7,54,0.00,,,0.00,WUHU216HW,2013-03-02 00:42:00,
2013-03-01 17:44:00,46.3,30.4,30.05,SE,135,2.9,6.7,54,0.00,,,0.00,WUHU216HW,2013-03-02 00:44:00,
2013-03-01 17:45:00,46.3,30.4,30.05,ESE,113,2.7,6.7,54,0.00,,,0.00,WUHU216HW,2013-03-02 00:45:00,
2013-03-01 17:46:00,46.1,30.2,30.05,ESE,113,4.7,6.7,54,0.00,,,0.00,WUHU216HW,2013-03-02 00:46:00,
2013-03-01 17:48:00,45.9,30.2,30.05,East,90,4.3,6.7,54,0.00,,,0.00,WUHU216HW,2013-03-02 00:48:00,
2013-03-01 17:50:00,45.7,30.4,30.05,East,90,5.4,6.3,55,0.00,,,0.00,WUHU216HW,2013-03-02 00:50:00,
2013-03-01 17:51:00,45.7,30.4,30.05,ESE,113,4.5,6.0,55,0.00,,,0.00,WUHU216HW,2013-03-02 00:51:00,
2013-03-01 17:53:00,45.4,30.1,30.05,SE,135,3.8,6.0,55,0.00,,,0.00,WUHU216HW,2013-03-02 00:53:00,
2013-03-01 17:55:00,45.4,30.1,30.05,SSE,158,1.1,6.0,55,0.00,,,0.00,WUHU216HW,2013-03-02 00:55:00,
2013-03-01 17:56:00,45.2,29.9,30.05,South,180,2.0,6.0,55,0.00,,,0.00,WUHU216HW,2013-03-02 00:56:00,
2013-03-01 17:57:00,45.2,29.9,30.05,SSE,158,3.6,6.0,55,0.00,,,0.00,WUHU216HW,2013-03-02 00:57:00,
2013-03-01 17:58:00,45.0,29.8,30.05,SE,135,5.6,6.0,55,0.00,,,0.00,WUHU216HW,2013-03-02 00:58:00,
2013-03-01 18:00:00,45.0,30.3,30.05,ESE,113,4.3,5.6,56,0.00,,,0.00,WUHU216HW,2013-03-02 01:00:00,
2013-03-01 18:01:00,45.0,30.3,30.05,ESE,113,4.0,5.6,56,0.00,,,0.00,WUHU216HW,2013-03-02 01:01:00,
2013-03-01 18:02:00,44.8,29.6,30.05,ESE,113,4.9,5.6,55,0.00,,,0.00,WUHU216HW,2013-03-02 01:02:00,
2013-03-01 18:04:00,44.6,29.4,30.05,ESE,113,3.8,5.6,55,0.00,,,0.00,WUHU216HW,2013-03-02 01:04:00,
2013-03-01 18:05:00,44.6,29.4,30.05,ESE,113,4.7,5.6,55,0.00,,,0.00,WUHU216HW,2013-03-02 01:05:00,
2013-03-01 18:06:00,44.5,29.3,30.04,ESE,113,6.3,6.3,55,0.00,,,0.00,WUHU216HW,2013-03-02 01:06:00,
2013-03-01 18:07:00,44.5,29.7,30.04,ESE,113,4.7,6.3,56,0.00,,,0.00,WUHU216HW,2013-03-02 01:07:00,
2013-03-01 18:09:00,44.3,29.5,30.05,SSE,158,1.1,6.3,56,0.00,,,0.00,WUHU216HW,2013-03-02 01:09:00,
2013-03-01 18:10:00,44.3,30.0,30.05,SE,135,0.9,6.3,57,0.00,,,0.00,WUHU216HW,2013-03-02 01:10:00,
2013-03-01 18:11:00,44.1,29.3,30.05,SW,225,2.5,6.3,56,0.00,,,0.00,WUHU216HW,2013-03-02 01:11:00,
2013-03-01 18:12:00,44.1,29.3,30.05,SSW,203,1.8,6.3,56,0.00,,,0.00,WUHU216HW,2013-03-02 01:12:00,
2013-03-01 18:14:00,44.1,29.3,30.05,SSE,158,3.4,6.3,56,0.00,,,0.00,WUHU216HW,2013-03-02 01:14:00,
2013-03-01 18:15:00,44.1,29.3,30.05,SSE,158,6.5,6.5,56,0.00,,,0.00,WUHU216HW,2013-03-02 01:15:00,
2013-03-01 18:16:00,44.1,29.8,30.05,SE,135,7.2,7.2,57,0.00,,,0.00,WUHU216HW,2013-03-02 01:16:00,
2013-03-01 18:17:00,43.9,29.6,30.05,ESE,113,5.6,7.2,57,0.00,,,0.00,WUHU216HW,2013-03-02 01:17:00,
2013-03-01 18:19:00,43.9,29.6,30.05,ESE,113,6.7,7.2,57,0.00,,,0.00,WUHU216HW,2013-03-02 01:19:00,
2013-03-01 18:20:00,43.9,29.6,30.05,ESE,113,4.0,7.2,57,0.00,,,0.00,WUHU216HW,2013-03-02 01:20:00,
2013-03-01 18:21:00,43.9,29.6,30.05,SE,135,6.9,7.4,57,0.00,,,0.00,WUHU216HW,2013-03-02 01:21:00,
2013-03-01 18:22:00,43.7,29.9,30.05,ESE,113,7.2,7.4,58,0.00,,,0.00,WUHU216HW,2013-03-02 01:22:00,
2013-03-01 18:24:00,43.7,29.9,30.05,ESE,113,6.9,8.3,58,0.00,,,0.00,WUHU216HW,2013-03-02 01:24:00,
2013-03-01 18:25:00,43.6,29.7,30.05,SE,135,5.8,8.3,58,0.00,,,0.00,WUHU216HW,2013-03-02 01:25:00,
2013-03-01 18:26:00,43.6,29.7,30.05,ESE,113,4.0,8.3,58,0.00,,,0.00,WUHU216HW,2013-03-02 01:26:00,
2013-03-01 18:27:00,43.6,29.7,30.05,ESE,113,4.0,8.3,58,0.00,,,0.00,WUHU216HW,2013-03-02 01:27:00,
2013-03-01 18:29:00,43.4,29.5,30.05,ENE,68,5.1,8.3,58,0.00,,,0.00,WUHU216HW,2013-03-02 01:29:00,
2013-03-01 18:30:00,43.4,30.4,30.05,East,90,5.4,8.3,60,0.00,,,0.00,WUHU216HW,2013-03-02 01:30:00,
2013-03-01 18:31:00,43.2,30.2,30.05,East,90,3.6,8.3,60,0.00,,,0.00,WUHU216HW,2013-03-02 01:31:00,
2013-03-01 18:33:00,43.2,30.2,30.06,East,90,5.8,8.3,60,0.00,,,0.00,WUHU216HW,2013-03-02 01:33:00,
2013-03-01 18:34:00,43.2,29.8,30.05,East,90,8.1,8.1,59,0.00,,,0.00,WUHU216HW,2013-03-02 01:34:00,
2013-03-01 18:35:00,43.2,29.8,30.05,ESE,113,12.1,12.1,59,0.00,,,0.00,WUHU216HW,2013-03-02 01:35:00,
2013-03-01 18:36:00,43.2,29.8,30.04,ESE,113,9.4,12.1,59,0.00,,,0.00,WUHU216HW,2013-03-02 01:36:00,
2013-03-01 18:38:00,43.2,29.8,30.05,SE,135,10.3,12.1,59,0.00,,,0.00,WUHU216HW,2013-03-02 01:38:00,
2013-03-01 18:39:00,43.2,29.8,30.05,SSE,158,9.2,12.1,59,0.00,,,0.00,WUHU216HW,2013-03-02 01:39:00,
2013-03-01 18:40:00,43.2,29.8,30.05,SSE,158,6.9,12.1,59,0.00,,,0.00,WUHU216HW,2013-03-02 01:40:00,
2013-03-01 18:42:00,43.2,29.8,30.05,South,180,8.3,12.1,59,0.00,,,0.00,WUHU216HW,2013-03-02 01:42:00,
2013-03-01 18:43:00,43.4,30.0,30.05,South,180,7.6,12.1,59,0.00,,,0.00,WUHU216HW,2013-03-02 01:43:00,
2013-03-01 18:44:00,43.4,30.0,30.05,South,180,8.1,12.1,59,0.00,,,0.00,WUHU216HW,2013-03-02 01:44:00,
2013-03-01 18:45:00,43.4,30.0,30.05,SSW,203,6.9,12.1,59,0.00,,,0.00,WUHU216HW,2013-03-02 01:45:00,
2013-03-01 18:47:00,43.6,30.2,30.05,SSW,203,6.7,10.7,59,0.00,,,0.00,WUHU216HW,2013-03-02 01:47:00,
2013-03-01 18:48:00,43.6,30.2,30.05,South,180,6.7,10.7,59,0.00,,,0.00,WUHU216HW,2013-03-02 01:48:00,
2013-03-01 18:49:00,43.6,30.2,30.05,South,180,6.7,10.7,59,0.00,,,0.00,WUHU216HW,2013-03-02 01:49:00,
2013-03-01 18:50:00,43.6,30.2,30.05,SSW,203,6.3,10.7,59,0.00,,,0.00,WUHU216HW,2013-03-02 01:50:00,
2013-03-01 18:52:00,43.6,30.2,30.05,SSW,203,6.9,8.5,59,0.00,,,0.00,WUHU216HW,2013-03-02 01:52:00,
2013-03-01 18:53:00,43.6,30.2,30.05,SSE,158,8.7,8.7,59,0.00,,,0.00,WUHU216HW,2013-03-02 01:53:00,
2013-03-01 18:54:00,43.6,29.7,30.05,SSE,158,6.9,9.2,58,0.00,,,0.00,WUHU216HW,2013-03-02 01:54:00,
2013-03-01 18:56:00,43.6,29.7,30.05,SSE,158,7.6,9.2,58,0.00,,,0.00,WUHU216HW,2013-03-02 01:56:00,
2013-03-01 18:57:00,43.6,29.7,30.05,South,180,6.9,9.2,58,0.00,,,0.00,WUHU216HW,2013-03-02 01:57:00,
2013-03-01 18:59:00,43.7,29.9,30.05,South,180,6.9,9.2,58,0.00,,,0.00,WUHU216HW,2013-03-02 01:59:00,
2013-03-01 19:01:00,43.7,29.9,30.05,SSW,203,5.1,9.2,58,0.00,,,0.00,WUHU216HW,2013-03-02 02:01:00,
2013-03-01 19:02:00,43.7,29.9,30.05,SSW,203,4.3,9.2,58,0.00,,,0.00,WUHU216HW,2013-03-02 02:02:00,
2013-03-01 19:04:00,43.7,29.9,30.05,South,180,4.0,7.8,58,0.00,,,0.00,WUHU216HW,2013-03-02 02:04:00,
2013-03-01 19:06:00,43.7,29.9,30.06,East,90,1.3,7.4,58,0.00,,,0.00,WUHU216HW,2013-03-02 02:06:00,
2013-03-01 19:07:00,43.6,29.7,30.06,ESE,113,4.9,7.2,58,0.00,,,0.00,WUHU216HW,2013-03-02 02:07:00,
2013-03-01 19:09:00,43.6,29.7,30.05,East,90,6.7,7.2,58,0.00,,,0.00,WUHU216HW,2013-03-02 02:09:00,
2013-03-01 19:11:00,43.4,29.5,30.06,SE,135,2.2,6.9,58,0.00,,,0.00,WUHU216HW,2013-03-02 02:11:00,
2013-03-01 19:12:00,43.2,29.3,30.06,SW,225,1.3,6.9,58,0.00,,,0.00,WUHU216HW,2013-03-02 02:12:00,
2013-03-01 19:14:00,43.2,29.3,30.06,SW,225,2.0,6.9,58,0.00,,,0.00,WUHU216HW,2013-03-02 02:14:00,
2013-03-01 19:16:00,43.0,29.2,30.06,SW,225,2.5,6.9,58,0.00,,,0.00,WUHU216HW,2013-03-02 02:16:00,
2013-03-01 19:17:00,42.8,29.0,30.06,SSW,203,2.5,6.9,58,0.00,,,0.00,WUHU216HW,2013-03-02 02:17:00,
2013-03-01 19:19:00,42.8,29.0,30.06,SSE,158,2.5,6.9,58,0.00,,,0.00,WUHU216HW,2013-03-02 02:19:00,
2013-03-01 19:21:00,42.8,29.0,30.06,SSE,158,2.9,4.0,58,0.00,,,0.00,WUHU216HW,2013-03-02 02:21:00,
2013-03-01 19:23:00,42.8,29.0,30.06,SE,135,2.0,4.0,58,0.00,,,0.00,WUHU216HW,2013-03-02 02:23:00,
2013-03-01 19:24:00,42.8,29.4,30.06,SSE,158,2.0,4.0,59,0.00,,,0.00,WUHU216HW,2013-03-02 02:24:00,
2013-03-01 19:25:00,42.8,29.4,30.06,SSE,158,1.8,4.0,59,0.00,,,0.00,WUHU216HW,2013-03-02 02:25:00,
2013-03-01 19:26:00,42.7,29.3,30.06,SE,135,2.5,4.0,59,0.00,,,0.00,WUHU216HW,2013-03-02 02:26:00,
2013-03-01 19:28:00,42.8,29.4,30.06,South,180,1.8,4.0,59,0.00,,,0.00,WUHU216HW,2013-03-02 02:28:00,
2013-03-01 19:29:00,42.8,29.4,30.06,SSW,203,1.1,4.0,59,0.00,,,0.00,WUHU216HW,2013-03-02 02:29:00,
2013-03-01 19:30:00,42.8,29.4,30.06,WSW,248,4.0,4.0,59,0.00,,,0.00,WUHU216HW,2013-03-02 02:30:00,
2013-03-01 19:31:00,42.8,29.4,30.06,SW,225,3.8,4.3,59,0.00,,,0.00,WUHU216HW,2013-03-02 02:31:00,
2013-03-01 19:33:00,42.8,29.4,30.06,SW,225,2.5,4.3,59,0.00,,,0.00,WUHU216HW,2013-03-02 02:33:00,
2013-03-01 19:34:00,42.7,29.3,30.06,SSW,203,2.5,4.3,59,0.00,,,0.00,WUHU216HW,2013-03-02 02:34:00,
2013-03-01 19:35:00,42.7,29.3,30.06,SSW,203,2.2,4.3,59,0.00,,,0.00,WUHU216HW,2013-03-02 02:35:00,
2013-03-01 19:36:00,42.5,29.2,30.06,SSE,158,0.0,4.3,59,0.00,,,0.00,WUHU216HW,2013-03-02 02:36:00,
2013-03-01 19:38:00,42.3,29.4,30.07,SSE,158,0.7,4.3,60,0.00,,,0.00,WUHU216HW,2013-03-02 02:38:00,
2013-03-01 19:39:00,42.3,29.4,30.07,WNW,293,1.8,4.3,60,0.00,,,0.00,WUHU216HW,2013-03-02 02:39:00,
2013-03-01 19:40:00,42.1,29.3,30.07,WSW,248,1.3,4.3,60,0.00,,,0.00,WUHU216HW,2013-03-02 02:40:00,
2013-03-01 19:41:00,42.1,29.3,30.07,WSW,248,0.4,4.0,60,0.00,,,0.00,WUHU216HW,2013-03-02 02:41:00,
2013-03-01 19:43:00,42.1,29.3,30.07,SE,135,1.1,4.0,60,0.00,,,0.00,WUHU216HW,2013-03-02 02:43:00,
2013-03-01 19:44:00,42.1,29.3,30.07,SE,135,2.0,2.2,60,0.00,,,0.00,WUHU216HW,2013-03-02 02:44:00,
2013-03-01 19:45:00,41.9,29.1,30.06,SE,135,2.5,2.5,60,0.00,,,0.00,WUHU216HW,2013-03-02 02:45:00,
2013-03-01 19:46:00,41.9,29.1,30.06,SE,135,1.6,2.5,60,0.00,,,0.00,WUHU216HW,2013-03-02 02:46:00,
2013-03-01 19:48:00,41.9,29.1,30.07,ESE,113,0.4,2.5,60,0.00,,,0.00,WUHU216HW,2013-03-02 02:48:00,
2013-03-01 19:49:00,41.9,29.4,30.07,NE,45,0.9,2.5,61,0.00,,,0.00,WUHU216HW,2013-03-02 02:49:00,
2013-03-01 19:51:00,41.9,29.4,30.07,NNE,23,1.6,2.5,61,0.00,,,0.00,WUHU216HW,2013-03-02 02:51:00,
2013-03-01 19:52:00,41.9,29.4,30.07,NNE,23,1.6,2.5,61,0.00,,,0.00,WUHU216HW,2013-03-02 02:52:00,
2013-03-01 19:53:00,42.1,29.6,30.07,NE,45,3.1,3.1,61,0.00,,,0.00,WUHU216HW,2013-03-02 02:53:00,
2013-03-01 19:54:00,42.1,29.6,30.07,NE,45,3.1,3.4,61,0.00,,,0.00,WUHU216HW,2013-03-02 02:54:00,
2013-03-01 19:56:00,42.1,29.6,30.07,NE,45,2.2,4.3,61,0.00,,,0.00,WUHU216HW,2013-03-02 02:56:00,
2013-03-01 19:57:00,42.1,29.6,30.07,NE,45,1.6,4.3,61,0.00,,,0.00,WUHU216HW,2013-03-02 02:57:00,
2013-03-01 19:58:00,42.1,29.6,30.07,ENE,68,1.8,4.3,61,0.00,,,0.00,WUHU216HW,2013-03-02 02:58:00,
2013-03-01 20:00:00,42.1,29.6,30.07,East,90,0.0,4.3,61,0.00,,,0.00,WUHU216HW,2013-03-02 03:00:00,
2013-03-01 20:01:00,41.9,29.4,30.07,ENE,68,0.0,4.3,61,0.00,,,0.00,WUHU216HW,2013-03-02 03:01:00,
2013-03-01 20:02:00,41.9,29.4,30.07,ENE,68,0.0,4.3,61,0.00,,,0.00,WUHU216HW,2013-03-02 03:02:00,
2013-03-01 20:03:00,41.8,29.3,30.07,West,270,3.6,4.3,61,0.00,,,0.00,WUHU216HW,2013-03-02 03:03:00,
2013-03-01 20:05:00,41.6,29.2,30.07,West,270,3.8,5.6,61,0.00,,,0.00,WUHU216HW,2013-03-02 03:05:00,
2013-03-01 20:06:00,41.2,28.8,30.07,West,270,3.8,5.6,61,0.00,,,0.00,WUHU216HW,2013-03-02 03:06:00,
2013-03-01 20:07:00,41.0,29.0,30.07,WNW,293,3.1,5.6,62,0.00,,,0.00,WUHU216HW,2013-03-02 03:07:00,
2013-03-01 20:08:00,40.9,28.8,30.07,West,270,1.8,5.6,62,0.00,,,0.00,WUHU216HW,2013-03-02 03:08:00,
2013-03-01 20:10:00,40.9,28.8,30.07,WSW,248,2.7,5.6,62,0.00,,,0.00,WUHU216HW,2013-03-02 03:10:00,
2013-03-01 20:11:00,41.0,29.0,30.07,WSW,248,2.5,5.6,62,0.00,,,0.00,WUHU216HW,2013-03-02 03:11:00,
2013-03-01 20:12:00,41.0,29.0,30.07,WSW,248,2.7,5.6,62,0.00,,,0.00,WUHU216HW,2013-03-02 03:12:00,
2013-03-01 20:13:00,41.0,29.0,30.07,WSW,248,3.1,5.6,62,0.00,,,0.00,WUHU216HW,2013-03-02 03:13:00,
2013-03-01 20:15:00,41.0,29.0,30.07,West,270,4.0,4.7,62,0.00,,,0.00,WUHU216HW,2013-03-02 03:15:00,
2013-03-01 20:16:00,40.9,29.3,30.07,WNW,293,4.7,4.7,63,0.00,,,0.00,WUHU216HW,2013-03-02 03:16:00,
2013-03-01 20:17:00,40.9,29.6,30.07,NW,315,3.8,4.9,64,0.00,,,0.00,WUHU216HW,2013-03-02 03:17:00,
2013-03-01 20:18:00,40.9,29.6,30.07,NNW,338,2.5,4.9,64,0.00,,,0.00,WUHU216HW,2013-03-02 03:18:00,
2013-03-01 20:20:00,41.0,29.8,30.07,NNE,23,3.8,4.9,64,0.00,,,0.00,WUHU216HW,2013-03-02 03:20:00,
2013-03-01 20:21:00,41.4,30.2,30.07,NNE,23,3.4,4.9,64,0.00,,,0.00,WUHU216HW,2013-03-02 03:21:00,
2013-03-01 20:22:00,41.6,29.9,30.07,NNE,23,2.5,4.9,63,0.00,,,0.00,WUHU216HW,2013-03-02 03:22:00,
2013-03-01 20:24:00,41.9,30.3,30.07,WSW,248,2.5,4.9,63,0.00,,,0.00,WUHU216HW,2013-03-02 03:24:00,
2013-03-01 20:25:00,41.9,29.9,30.07,West,270,4.7,5.1,62,0.00,,,0.00,WUHU216HW,2013-03-02 03:25:00,
2013-03-01 20:26:00,41.6,29.5,30.07,WSW,248,2.9,5.4,62,0.00,,,0.00,WUHU216HW,2013-03-02 03:26:00,
2013-03-01 20:27:00,41.4,29.3,30.07,West,270,1.6,5.4,62,0.00,,,0.00,WUHU216HW,2013-03-02 03:27:00,
2013-03-01 20:29:00,41.2,29.2,30.07,West,270,1.8,5.4,62,0.00,,,0.00,WUHU216HW,2013-03-02 03:29:00,
2013-03-01 20:30:00,41.0,29.4,30.07,West,270,2.2,5.4,63,0.00,,,0.00,WUHU216HW,2013-03-02 03:30:00,
2013-03-01 20:32:00,40.9,29.3,30.07,West,270,2.7,5.4,63,0.00,,,0.00,WUHU216HW,2013-03-02 03:32:00,
2013-03-01 20:34:00,40.7,29.4,30.07,NNW,338,1.6,5.4,64,0.00,,,0.00,WUHU216HW,2013-03-02 03:34:00,
2013-03-01 20:35:00,40.7,29.4,30.07,NNW,338,1.8,5.4,64,0.00,,,0.00,WUHU216HW,2013-03-02 03:35:00,
2013-03-01 20:37:00,40.7,29.4,30.07,NNW,338,1.3,3.1,64,0.00,,,0.00,WUHU216HW,2013-03-02 03:37:00,
2013-03-01 20:39:00,40.7,29.4,30.08,West,270,2.0,3.1,64,0.00,,,0.00,WUHU216HW,2013-03-02 03:39:00,
2013-03-01 20:40:00,40.7,29.4,30.08,WSW,248,6.0,6.0,64,0.00,,,0.00,WUHU216HW,2013-03-02 03:40:00,
2013-03-01 20:42:00,40.1,28.5,30.08,WSW,248,6.3,6.7,63,0.00,,,0.00,WUHU216HW,2013-03-02 03:42:00,
2013-03-01 20:43:00,40.0,28.4,30.08,WSW,248,6.9,6.9,63,0.00,,,0.00,WUHU216HW,2013-03-02 03:43:00,
2013-03-01 20:44:00,39.8,28.9,30.08,WSW,248,8.5,8.9,65,0.00,,,0.00,WUHU216HW,2013-03-02 03:44:00,
2013-03-01 20:45:00,39.6,28.4,30.08,WSW,248,8.5,8.9,64,0.00,,,0.00,WUHU216HW,2013-03-02 03:45:00,
2013-03-01 20:47:00,39.8,28.9,30.08,WSW,248,7.2,9.4,65,0.00,,,0.00,WUHU216HW,2013-03-02 03:47:00,
2013-03-01 20:48:00,39.8,28.9,30.08,WSW,248,6.3,9.4,65,0.00,,,0.00,WUHU216HW,2013-03-02 03:48:00,
2013-03-01 20:49:00,39.8,28.9,30.08,WSW,248,5.4,9.4,65,0.00,,,0.00,WUHU216HW,2013-03-02 03:49:00,
2013-03-01 20:50:00,39.8,29.3,30.08,West,270,2.9,9.4,66,0.00,,,0.00,WUHU216HW,2013-03-02 03:50:00,
2013-03-01 20:52:00,40.0,29.8,30.08,NW,315,1.8,9.4,67,0.00,,,0.00,WUHU216HW,2013-03-02 03:52:00,
2013-03-01 20:53:00,40.0,29.8,30.08,NNW,338,2.2,9.4,67,0.00,,,0.00,WUHU216HW,2013-03-02 03:53:00,
2013-03-01 20:54:00,40.3,29.8,30.08,NNW,338,1.1,9.4,66,0.00,,,0.00,WUHU216HW,2013-03-02 03:54:00,
2013-03-01 20:56:00,40.3,29.8,30.08,WSW,248,3.8,9.4,66,0.00,,,0.00,WUHU216HW,2013-03-02 03:56:00,
2013-03-01 20:57:00,40.5,29.6,30.08,WSW,248,4.9,6.9,65,0.00,,,0.00,WUHU216HW,2013-03-02 03:57:00,
2013-03-01 20:58:00,40.3,29.4,30.08,WSW,248,5.4,6.9,65,0.00,,,0.00,WUHU216HW,2013-03-02 03:58:00,
2013-03-01 20:59:00,40.1,29.3,30.08,WSW,248,5.4,5.4,65,0.00,,,0.00,WUHU216HW,2013-03-02 03:59:00,
2013-03-01 21:01:00,40.0,29.1,30.08,WSW,248,6.5,6.5,65,0.00,,,0.00,WUHU216HW,2013-03-02 04:01:00,
2013-03-01 21:02:00,39.8,28.9,30.08,WSW,248,7.6,7.6,65,0.00,,,0.00,WUHU216HW,2013-03-02 04:02:00,
2013-03-01 21:03:00,39.8,29.3,30.08,WSW,248,8.1,8.1,66,0.00,,,0.00,WUHU216HW,2013-03-02 04:03:00,
2013-03-01 21:04:00,39.6,29.4,30.08,WSW,248,7.6,8.3,67,0.00,,,0.00,WUHU216HW,2013-03-02 04:04:00,
2013-03-01 21:06:00,39.6,29.4,30.08,WSW,248,6.5,8.3,67,0.00,,,0.00,WUHU216HW,2013-03-02 04:06:00,
2013-03-01 21:08:00,39.8,29.3,30.08,WSW,248,5.1,8.3,66,0.00,,,0.00,WUHU216HW,2013-03-02 04:08:00,
2013-03-01 21:09:00,39.8,29.3,30.08,WSW,248,4.7,8.3,66,0.00,,,0.00,WUHU216HW,2013-03-02 04:09:00,
2013-03-01 21:11:00,40.0,29.4,30.08,West,270,7.2,8.3,66,0.00,,,0.00,WUHU216HW,2013-03-02 04:11:00,
2013-03-01 21:13:00,39.8,29.6,30.08,West,270,7.8,8.3,67,0.00,,,0.00,WUHU216HW,2013-03-02 04:13:00,
2013-03-01 21:14:00,39.8,29.3,30.09,WSW,248,6.9,7.8,66,0.00,,,0.00,WUHU216HW,2013-03-02 04:14:00,
2013-03-01 21:16:00,39.8,29.3,30.08,WSW,248,5.4,7.8,66,0.00,,,0.00,WUHU216HW,2013-03-02 04:16:00,
2013-03-01 21:18:00,39.8,29.3,30.08,WSW,248,6.3,7.8,66,0.00,,,0.00,WUHU216HW,2013-03-02 04:18:00,
2013-03-01 21:19:00,39.8,29.3,30.08,WSW,248,5.8,7.8,66,0.00,,,0.00,WUHU216HW,2013-03-02 04:19:00,
2013-03-01 21:21:00,39.8,29.3,30.08,WSW,248,7.2,7.8,66,0.00,,,0.00,WUHU216HW,2013-03-02 04:21:00,
2013-03-01 21:23:00,39.6,29.1,30.08,WSW,248,7.2,7.6,66,0.00,,,0.00,WUHU216HW,2013-03-02 04:23:00,
2013-03-01 21:24:00,39.4,29.3,30.08,West,270,7.4,8.1,67,0.00,,,0.00,WUHU216HW,2013-03-02 04:24:00,
2013-03-01 21:26:00,39.2,29.1,30.08,WSW,248,7.6,8.1,67,0.00,,,0.00,WUHU216HW,2013-03-02 04:26:00,
2013-03-01 21:28:00,39.1,29.0,30.08,WSW,248,7.2,8.1,67,0.00,,,0.00,WUHU216HW,2013-03-02 04:28:00,
2013-03-01 21:30:00,39.1,29.0,30.08,WSW,248,5.4,8.1,67,0.00,,,0.00,WUHU216HW,2013-03-02 04:30:00,
2013-03-01 21:32:00,39.1,29.0,30.08,WSW,248,6.7,8.1,67,0.00,,,0.00,WUHU216HW,2013-03-02 04:32:00,
2013-03-01 21:33:00,39.2,29.1,30.08,WSW,248,7.2,8.1,67,0.00,,,0.00,WUHU216HW,2013-03-02 04:33:00,
2013-03-01 21:35:00,39.2,29.1,30.08,WSW,248,7.2,7.8,67,0.00,,,0.00,WUHU216HW,2013-03-02 04:35:00,
2013-03-01 21:37:00,39.2,29.1,30.08,WSW,248,4.3,7.8,67,0.00,,,0.00,WUHU216HW,2013-03-02 04:37:00,
2013-03-01 21:38:00,39.2,29.1,30.08,WSW,248,5.8,7.8,67,0.00,,,0.00,WUHU216HW,2013-03-02 04:38:00,
2013-03-01 21:39:00,39.4,29.3,30.08,WSW,248,6.3,7.8,67,0.00,,,0.00,WUHU216HW,2013-03-02 04:39:00,
2013-03-01 21:40:00,39.4,29.3,30.08,WSW,248,6.3,7.8,67,0.00,,,0.00,WUHU216HW,2013-03-02 04:40:00,
2013-03-01 21:42:00,39.2,29.1,30.08,WSW,248,4.0,7.8,67,0.00,,,0.00,WUHU216HW,2013-03-02 04:42:00,
2013-03-01 21:43:00,39.2,29.1,30.08,SW,225,4.0,7.2,67,0.00,,,0.00,WUHU216HW,2013-03-02 04:43:00,
2013-03-01 21:44:00,39.2,29.1,30.08,SW,225,4.0,7.2,67,0.00,,,0.00,WUHU216HW,2013-03-02 04:44:00,
2013-03-01 21:45:00,39.2,29.1,30.08,SW,225,3.8,6.7,67,0.00,,,0.00,WUHU216HW,2013-03-02 04:45:00,
2013-03-01 21:47:00,39.2,29.1,30.08,WSW,248,5.1,6.7,67,0.00,,,0.00,WUHU216HW,2013-03-02 04:47:00,
2013-03-01 21:48:00,39.2,29.1,30.08,WSW,248,6.3,6.9,67,0.00,,,0.00,WUHU216HW,2013-03-02 04:48:00,
2013-03-01 21:49:00,39.2,29.1,30.08,WSW,248,6.7,6.9,67,0.00,,,0.00,WUHU216HW,2013-03-02 04:49:00,
2013-03-01 21:50:00,39.2,29.1,30.08,WSW,248,6.9,7.2,67,0.00,,,0.00,WUHU216HW,2013-03-02 04:50:00,
2013-03-01 21:52:00,39.2,29.1,30.08,SW,225,1.8,7.2,67,0.00,,,0.00,WUHU216HW,2013-03-02 04:52:00,
2013-03-01 21:54:00,39.2,29.1,30.08,West,270,4.3,7.2,67,0.00,,,0.00,WUHU216HW,2013-03-02 04:54:00,
2013-03-01 21:55:00,39.4,29.3,30.08,West,270,2.9,7.2,67,0.00,,,0.00,WUHU216HW,2013-03-02 04:55:00,
2013-03-01 21:57:00,39.4,29.3,30.08,West,270,3.8,7.2,67,0.00,,,0.00,WUHU216HW,2013-03-02 04:57:00,
2013-03-01 21:59:00,39.6,29.4,30.08,WNW,293,3.4,7.2,67,0.00,,,0.00,WUHU216HW,2013-03-02 04:59:00,
2013-03-01 22:00:00,39.6,29.4,30.08,WSW,248,6.7,6.9,67,0.00,,,0.00,WUHU216HW,2013-03-02 05:00:00,
2013-03-01 22:05:00,40.3,30.2,30.08,WSW,248,1.6,6.7,67,0.00,,,0.00,WUHU216HW,2013-03-02 05:05:00,
2013-03-01 22:10:00,40.3,29.8,30.08,WSW,248,6.3,7.6,66,0.00,,,0.00,WUHU216HW,2013-03-02 05:10:00,
2013-03-01 22:15:00,40.0,29.4,30.08,West,270,7.6,8.5,66,0.00,,,0.00,WUHU216HW,2013-03-02 05:15:00,
2013-03-01 22:20:00,39.2,29.1,30.08,WSW,248,4.5,8.5,67,0.00,,,0.00,WUHU216HW,2013-03-02 05:20:00,
2013-03-01 22:21:00,39.2,29.1,30.08,WSW,248,4.5,8.5,67,0.00,,,0.00,WUHU216HW,2013-03-02 05:21:00,
2013-03-01 22:25:00,38.9,29.2,30.08,WSW,248,8.5,8.7,68,0.00,,,0.00,WUHU216HW,2013-03-02 05:25:00,
2013-03-01 22:26:00,38.9,29.2,30.08,WSW,248,7.8,8.7,68,0.00,,,0.00,WUHU216HW,2013-03-02 05:26:00,
2013-03-01 22:30:00,38.9,28.8,30.08,SW,225,2.0,8.7,67,0.00,,,0.00,WUHU216HW,2013-03-02 05:30:00,
2013-03-01 22:31:00,38.9,28.8,30.08,WSW,248,3.4,8.7,67,0.00,,,0.00,WUHU216HW,2013-03-02 05:31:00,
2013-03-01 22:35:00,38.9,29.2,30.08,SSW,203,4.7,9.2,68,0.00,,,0.00,WUHU216HW,2013-03-02 05:35:00,
2013-03-01 22:36:00,38.9,29.2,30.08,SSW,203,4.7,9.2,68,0.00,,,0.00,WUHU216HW,2013-03-02 05:36:00,
2013-03-01 22:40:00,39.1,29.0,30.08,SW,225,4.7,9.2,67,0.00,,,0.00,WUHU216HW,2013-03-02 05:40:00,
2013-03-01 22:41:00,39.1,29.0,30.08,SW,225,4.7,9.2,67,0.00,,,0.00,WUHU216HW,2013-03-02 05:41:00,
2013-03-01 22:46:00,39.1,29.0,30.08,SW,225,4.5,6.3,67,0.00,,,0.00,WUHU216HW,2013-03-02 05:46:00,
2013-03-01 22:51:00,38.9,28.8,30.08,WSW,248,3.4,6.3,67,0.00,,,0.00,WUHU216HW,2013-03-02 05:51:00,
2013-03-01 22:56:00,39.1,29.4,30.08,West,270,2.5,6.3,68,0.00,,,0.00,WUHU216HW,2013-03-02 05:56:00,
2013-03-01 22:57:00,39.2,29.5,30.08,West,270,3.4,6.3,68,0.00,,,0.00,WUHU216HW,2013-03-02 05:57:00,
2013-03-01 23:01:00,39.2,29.1,30.07,WSW,248,3.4,5.4,67,0.00,,,0.00,WUHU216HW,2013-03-02 06:01:00,
2013-03-01 23:02:00,39.2,29.1,30.07,WSW,248,4.0,5.4,67,0.00,,,0.00,WUHU216HW,2013-03-02 06:02:00,
2013-03-01 23:06:00,38.7,29.0,30.08,WSW,248,6.3,8.1,68,0.00,,,0.00,WUHU216HW,2013-03-02 06:06:00,
2013-03-01 23:07:00,38.7,29.0,30.08,WSW,248,4.0,8.1,68,0.00,,,0.00,WUHU216HW,2013-03-02 06:07:00,
2013-03-01 23:11:00,38.9,29.2,30.08,SW,225,2.0,8.1,68,0.00,,,0.00,WUHU216HW,2013-03-02 06:11:00,
2013-03-01 23:12:00,38.9,28.8,30.08,SW,225,2.7,8.1,67,0.00,,,0.00,WUHU216HW,2013-03-02 06:12:00,
2013-03-01 23:16:00,38.7,28.6,30.08,SW,225,3.6,5.8,67,0.00,,,0.00,WUHU216HW,2013-03-02 06:16:00,
2013-03-01 23:17:00,38.7,28.6,30.08,WSW,248,3.6,4.7,67,0.00,,,0.00,WUHU216HW,2013-03-02 06:17:00,
2013-03-01 23:18:00,38.7,28.6,30.08,SW,225,4.7,4.7,67,0.00,,,0.00,WUHU216HW,2013-03-02 06:18:00,
2013-03-01 23:21:00,38.5,28.8,30.08,WSW,248,6.5,6.7,68,0.00,,,0.00,WUHU216HW,2013-03-02 06:21:00,
2013-03-01 23:22:00,38.5,28.8,30.08,WSW,248,5.8,6.7,68,0.00,,,0.00,WUHU216HW,2013-03-02 06:22:00,
2013-03-01 23:23:00,38.5,28.8,30.08,West,270,8.9,8.9,68,0.00,,,0.00,WUHU216HW,2013-03-02 06:23:00,
2013-03-01 23:26:00,39.1,29.4,30.08,West,270,5.1,9.4,68,0.00,,,0.00,WUHU216HW,2013-03-02 06:26:00,
2013-03-01 23:27:00,39.1,29.4,30.08,WSW,248,4.7,9.4,68,0.00,,,0.00,WUHU216HW,2013-03-02 06:27:00,
2013-03-01 23:28:00,39.2,29.5,30.08,WSW,248,4.9,9.4,68,0.00,,,0.00,WUHU216HW,2013-03-02 06:28:00,
2013-03-01 23:31:00,39.2,29.1,30.08,West,270,4.7,9.4,67,0.00,,,0.00,WUHU216HW,2013-03-02 06:31:00,
2013-03-01 23:32:00,39.2,29.1,30.08,West,270,4.7,9.4,67,0.00,,,0.00,WUHU216HW,2013-03-02 06:32:00,
2013-03-01 23:33:00,38.9,28.8,30.08,West,270,5.1,9.4,67,0.00,,,0.00,WUHU216HW,2013-03-02 06:33:00,
2013-03-01 23:36:00,38.5,28.4,30.08,West,270,4.3,5.4,67,0.00,,,0.00,WUHU216HW,2013-03-02 06:36:00,
2013-03-01 23:37:00,38.5,28.8,30.08,West,270,4.3,5.4,68,0.00,,,0.00,WUHU216HW,2013-03-02 06:37:00,
2013-03-01 23:38:00,38.5,28.8,30.08,West,270,3.8,5.1,68,0.00,,,0.00,WUHU216HW,2013-03-02 06:38:00,
2013-03-01 23:42:00,38.5,28.8,30.08,West,270,6.3,6.3,68,0.00,,,0.00,WUHU216HW,2013-03-02 06:42:00,
2013-03-01 23:44:00,38.3,28.7,30.08,WSW,248,7.6,7.6,68,0.00,,,0.00,WUHU216HW,2013-03-02 06:44:00,
2013-03-01 23:47:00,38.5,28.8,30.08,West,270,4.0,7.6,68,0.00,,,0.00,WUHU216HW,2013-03-02 06:47:00,
2013-03-01 23:48:00,38.5,28.8,30.08,West,270,3.4,7.6,68,0.00,,,0.00,WUHU216HW,2013-03-02 06:48:00,
2013-03-01 23:49:00,38.5,28.8,30.08,WSW,248,1.1,7.6,68,0.00,,,0.00,WUHU216HW,2013-03-02 06:49:00,
2013-03-01 23:52:00,38.5,28.8,30.08,ENE,68,3.8,7.6,68,0.00,,,0.00,WUHU216HW,2013-03-02 06:52:00,
2013-03-01 23:53:00,38.7,29.0,30.08,East,90,2.9,7.6,68,0.00,,,0.00,WUHU216HW,2013-03-02 06:53:00,
2013-03-01 23:54:00,38.9,29.2,30.08,East,90,2.5,6.5,68,0.00,,,0.00,WUHU216HW,2013-03-02 06:54:00,
2013-03-01 23:57:00,39.1,29.0,30.08,WNW,293,1.1,3.8,67,0.00,,,0.00,WUHU216HW,2013-03-02 06:57:00,
2013-03-01 23:58:00,39.1,29.0,30.08,WNW,293,1.1,3.8,67,0.00,,,0.00,WUHU216HW,2013-03-02 06:58:00,
2013-03-01 23:59:00,38.9,28.8,30.08,WNW,293,5.4,5.8,67,0.00,,,0.00,WUHU216HW,2013-03-02 06:59:00,